ECMWFNIL_500_spd_000.txt.gz
Wind_Speed
29 29 29 30 30 30 31 32 33 33 34 35 36 36 36 36 36 36 36 36 36 36 37 37 38 39 40 42 43 44 45 46 48 50 52 53 54 54 55 57 58 58
31 31 31 32 32 32 33 34 34 35 36 37 37 38 39 39 40 40 40 40 40 39 39 39 39 40 41 42 44 45 46 47 48 49 51 52 54 56 56 57 58 58
33 33 33 34 34 34 35 36 36 37 38 38 39 39 40 41 42 42 43 43 43 43 42 41 40 40 41 43 44 46 47 48 49 49 51 52 53 56 57 57 58 59
35 35 35 36 36 36 37 38 39 39 40 40 41 41 41 42 43 44 45 45 45 45 44 44 43 42 41 42 44 46 47 49 49 50 51 52 53 55 56 57 58 59
37 37 38 38 39 40 40 40 41 41 42 42 43 43 43 44 45 45 46 46 47 47 46 45 44 44 43 43 43 45 47 48 49 50 51 52 54 55 56 57 58 58
39 39 39 40 41 42 42 42 43 43 44 44 44 45 45 46 46 47 47 47 47 47 46 45 45 45 45 44 44 44 46 47 48 49 51 52 53 55 56 57 58 59
41 40 41 41 42 43 44 44 45 45 46 46 46 47 47 47 47 47 47 47 48 48 47 46 45 46 46 46 45 45 46 46 47 49 50 51 52 54 56 57 57 58
41 41 42 42 43 44 45 46 47 48 48 48 48 49 49 48 48 48 48 47 48 48 48 48 47 46 46 47 47 47 47 47 47 48 49 50 50 52 54 57 58 58
42 42 43 43 44 45 46 48 49 50 50 49 49 49 49 49 49 48 48 48 48 48 49 49 49 48 47 47 48 48 48 48 48 48 49 50 50 50 51 54 57 58
42 42 43 44 45 46 47 48 49 50 49 49 48 48 48 48 48 48 48 48 48 48 49 50 50 50 50 49 49 49 49 49 49 49 49 50 50 51 51 52 54 57
41 42 43 44 45 46 47 48 48 48 48 48 47 47 47 47 47 47 48 48 48 48 49 50 50 51 51 51 50 50 51 50 50 51 50 50 50 51 52 52 53 54
40 41 42 43 43 44 45 46 46 47 47 47 48 48 48 47 47 47 47 48 48 48 49 50 50 51 52 52 52 52 52 52 52 52 52 52 52 51 51 52 53 53
38 39 40 40 41 41 42 43 44 45 46 47 48 48 48 48 48 47 47 48 48 48 49 50 50 51 52 53 53 53 53 54 54 53 53 53 53 53 53 52 52 53
36 36 36 37 38 39 40 41 42 44 45 47 48 48 48 48 48 48 48 48 48 49 49 50 51 51 52 53 54 55 55 55 55 55 55 55 54 55 55 54 53 53
34 34 35 36 37 39 40 41 42 44 46 47 48 48 48 48 48 47 48 48 49 49 49 50 51 51 52 53 54 55 56 56 56 56 56 56 56 56 56 56 55 54
35 34 34 35 37 38 39 40 42 43 44 46 46 47 47 47 47 47 48 48 49 49 49 50 50 51 52 53 54 55 56 57 57 57 57 58 57 57 57 57 57 57
35 34 34 35 36 38 39 40 42 43 44 45 45 45 46 46 47 47 48 49 49 49 50 50 50 51 51 53 54 54 55 57 58 58 58 58 58 58 58 58 58 58
35 35 35 36 37 39 40 41 43 44 45 45 45 45 46 46 47 48 49 49 50 51 51 51 51 51 52 53 54 55 55 57 58 58 59 59 59 59 59 59 59 59
36 36 36 38 39 41 42 43 44 46 46 46 46 46 46 46 47 49 50 50 51 52 52 52 52 52 53 54 54 55 56 57 57 58 59 59 59 60 60 60 60 60
36 37 38 40 41 43 44 45 46 47 47 47 47 47 47 48 49 50 51 51 52 52 53 53 54 54 54 55 55 56 57 57 57 57 58 58 59 60 60 60 60 61
38 39 40 42 43 44 46 46 47 48 49 49 49 48 49 50 51 52 52 52 53 53 53 54 54 55 56 56 56 56 57 58 58 58 58 58 59 60 60 60 60 61
40 41 43 44 45 46 47 48 48 49 49 49 48 49 50 51 53 53 53 53 53 54 54 54 54 55 56 56 57 57 58 59 59 59 59 59 59 60 61 61 61 61
42 43 44 45 46 47 48 48 48 49 50 49 49 49 50 52 53 53 53 54 53 54 54 54 54 54 54 55 56 57 58 59 60 61 61 61 61 61 62 62 62 62
43 45 46 46 47 47 48 49 49 49 50 50 50 50 51 52 52 53 53 52 52 52 52 53 53 53 53 54 55 57 58 59 60 62 62 63 63 63 63 64 64 64
44 45 46 47 47 48 48 49 50 50 50 50 50 51 51 52 52 51 51 50 50 51 52 53 53 53 54 55 55 57 58 59 61 62 62 63 64 64 65 65 65 65
45 46 47 47 47 48 49 50 50 51 51 50 50 50 51 50 49 49 49 50 51 52 53 54 55 54 55 55 55 55 56 57 59 60 60 61 62 62 63 63 64 65

ECMWFNIL_500_spd_003.txt.gz
Wind_Speed
27 27 27 27 28 28 28 30 31 31 31 32 33 33 33 33 33 33 34 34 33 33 33 32 32 32 32 32 33 34 36 37 38 39 40 40 41 43 43 44 45 45
28 28 29 29 29 29 29 31 32 32 32 33 34 35 35 35 35 36 36 36 36 36 36 35 35 35 34 34 35 35 36 38 39 40 41 41 42 43 45 46 46 47
30 31 31 31 31 31 31 32 33 33 33 34 34 35 35 36 37 37 38 38 39 39 39 39 38 37 37 37 37 37 37 38 40 41 42 43 43 44 45 47 48 49
32 33 33 33 33 33 33 34 35 35 35 35 35 35 36 36 37 37 38 39 39 40 41 41 41 40 40 40 39 39 38 39 40 42 43 44 45 45 46 47 49 50
34 34 35 35 35 36 36 37 37 37 37 38 38 38 38 38 38 39 40 40 41 41 42 42 43 43 42 42 42 42 41 40 41 42 43 45 47 47 48 49 49 50
33 34 34 35 36 37 37 38 39 40 40 40 40 40 40 40 40 41 41 42 43 43 44 44 45 45 45 45 45 45 44 44 43 42 43 45 47 49 50 50 50 51
32 32 33 35 36 37 38 39 40 41 41 41 41 42 42 42 42 42 43 44 44 45 45 46 47 47 47 47 47 47 47 46 46 45 44 45 46 49 51 52 52 52
30 31 32 34 36 37 38 39 40 41 41 42 42 42 42 43 43 44 45 45 46 47 47 48 48 49 50 50 50 49 49 48 48 48 47 46 46 48 50 52 53 53
30 31 33 34 35 36 37 39 40 40 41 42 42 43 44 44 45 46 47 47 48 49 49 50 50 51 52 52 52 52 51 50 50 50 49 48 48 48 49 51 53 54
32 33 34 34 35 36 37 39 40 41 42 42 43 44 45 46 47 47 48 49 49 50 50 51 51 52 53 53 53 54 53 52 51 50 50 50 50 49 50 51 52 54
33 34 34 35 36 37 38 39 41 41 42 43 44 46 46 47 48 48 48 49 49 49 50 51 51 52 53 53 53 54 54 53 52 51 50 50 51 51 51 51 52 53
34 34 35 36 37 38 39 40 41 41 42 43 44 45 46 47 47 47 47 48 48 49 49 50 51 52 53 53 53 53 53 53 53 52 51 51 51 51 52 52 52 53
34 35 36 37 38 39 40 40 40 41 42 42 43 44 44 45 45 46 46 47 47 48 49 49 50 51 52 53 53 53 54 53 53 53 52 51 51 51 52 53 53 54
35 36 37 38 38 39 39 40 40 40 40 41 41 42 42 43 44 44 45 46 47 48 48 49 50 50 51 52 52 53 54 54 54 54 53 53 52 52 52 53 53 54
37 37 37 38 38 39 39 39 39 39 39 39 39 40 40 41 42 43 44 45 46 47 48 49 50 50 51 51 52 53 54 54 55 54 54 54 54 53 53 53 53 54
38 37 38 38 39 39 39 39 39 38 38 39 39 40 40 41 42 43 45 45 46 47 47 48 49 49 50 51 52 53 54 54 55 55 55 55 55 55 54 54 54 54
40 39 39 39 39 40 40 39 39 39 39 39 39 40 40 40 42 43 46 47 48 48 49 49 49 49 50 51 52 54 54 55 55 56 56 56 56 56 56 55 55 56
40 40 39 39 40 40 40 40 40 39 39 39 39 38 37 38 40 42 45 47 49 50 50 50 51 51 51 52 53 55 56 56 57 57 57 57 57 58 57 57 57 57
40 40 40 40 40 41 41 41 40 40 40 40 38 37 37 39 41 43 46 47 49 50 51 51 52 52 53 54 55 56 57 58 58 58 58 58 58 59 59 59 59 59
39 39 40 41 41 41 41 41 41 41 41 41 39 39 40 42 44 47 48 49 49 50 51 51 52 52 54 55 56 57 58 59 59 59 59 59 59 59 60 60 60 61
39 40 41 41 41 42 42 42 42 43 42 42 41 41 43 45 48 49 50 49 49 49 50 51 51 52 53 54 54 55 57 58 59 59 60 60 59 59 60 60 60 61
39 40 42 43 42 43 43 43 43 43 43 43 43 44 46 49 50 51 50 49 49 49 50 51 51 52 53 53 54 55 56 57 58 58 59 59 59 59 60 60 60 61
40 41 42 43 43 43 43 43 44 44 44 44 44 46 49 51 52 52 51 50 50 51 51 51 52 53 53 54 55 55 55 56 57 57 58 58 59 59 60 60 60 61
42 42 43 43 43 43 44 44 44 44 44 45 46 49 52 52 53 53 52 52 52 52 53 53 53 54 54 54 53 54 54 54 55 56 56 57 57 58 59 59 60 61
44 42 42 43 43 43 43 44 44 44 44 46 49 51 52 53 53 54 53 53 53 54 55 55 54 53 52 52 52 52 53 53 54 55 55 56 56 56 57 58 59 60
45 42 41 42 43 43 43 43 43 43 46 49 50 51 52 52 53 53 53 54 55 55 55 53 52 51 51 52 53 53 54 54 55 55 55 55 55 55 56 57 58 59

ECMWFNIL_500_spd_006.txt.gz
Wind_Speed
23 23 22 22 23 23 25 26 27 27 28 28 28 28 29 29 30 30 30 30 29 30 29 29 29 29 29 29 30 31 32 32 33 33 33 33 33 33 34 35 36 36
24 23 23 22 22 23 24 26 27 27 27 28 28 28 29 29 30 30 31 31 31 32 32 31 31 30 30 30 31 31 32 33 34 34 35 35 35 35 35 36 37 38
25 25 25 24 24 24 25 27 28 28 28 29 29 29 30 30 31 31 32 33 33 34 35 35 34 34 33 33 33 33 34 34 35 36 37 38 37 38 38 38 38 39
27 28 28 28 27 27 27 28 29 29 29 29 30 30 31 31 32 33 33 34 34 35 36 37 37 37 37 37 36 37 37 37 37 37 38 39 40 41 41 41 41 41
30 30 30 30 30 30 30 30 31 31 30 31 31 31 32 32 33 34 34 35 35 36 37 37 38 38 39 39 39 39 39 40 40 39 39 40 41 42 43 43 44 44
30 31 31 32 32 32 32 33 33 33 33 32 32 33 33 34 35 36 36 37 38 38 38 38 39 39 40 40 41 41 41 42 42 42 42 41 41 42 43 44 45 46
27 28 29 31 32 33 34 34 34 34 33 33 33 33 33 34 35 36 37 38 39 39 40 40 40 41 42 42 43 43 44 44 44 44 44 44 44 44 44 44 45 46
26 27 28 29 31 32 32 32 32 32 32 32 32 32 32 33 34 35 36 37 38 39 40 41 42 42 43 44 45 45 46 46 46 46 46 46 46 46 46 46 46 46
28 28 29 30 30 30 30 30 29 29 30 30 30 31 32 33 34 35 36 37 38 39 40 41 42 43 44 45 46 47 48 49 49 49 49 49 48 48 49 49 49 48
30 31 32 32 32 32 32 30 29 29 30 31 31 32 33 34 35 36 37 37 38 39 41 42 43 44 45 46 47 48 49 50 51 51 52 52 51 51 51 51 52 51
33 34 34 34 35 35 33 32 31 31 33 34 34 35 35 36 36 36 37 37 38 39 40 41 42 44 45 46 47 48 49 50 51 52 53 53 53 54 54 53 53 53
35 36 36 37 37 36 34 33 33 34 35 36 36 36 37 37 37 37 37 38 38 39 39 40 41 42 43 44 45 46 48 49 50 51 52 53 54 54 55 55 55 55
37 37 39 39 38 38 37 36 36 37 37 37 37 38 38 38 37 37 38 38 38 39 39 39 40 41 41 42 43 44 46 47 49 50 51 53 53 54 55 56 56 57
39 38 41 41 40 40 39 39 38 38 38 38 38 38 39 39 38 38 38 39 38 39 39 39 40 41 42 42 43 45 46 47 48 49 50 51 53 53 54 55 56 57
41 40 42 43 42 42 42 41 41 40 39 39 38 39 39 39 39 39 39 39 39 39 40 40 40 40 41 42 44 45 47 48 49 50 50 51 52 53 54 55 56 56
47 45 43 44 43 43 44 44 43 42 41 40 39 39 40 40 40 40 39 40 40 40 40 39 39 39 40 42 43 45 46 48 50 51 52 53 53 53 54 55 56 57
50 47 43 45 47 46 45 44 44 43 42 41 41 41 41 41 40 40 40 40 40 41 41 40 40 41 42 43 45 46 48 49 50 52 53 55 55 55 55 55 56 57
46 44 41 44 49 49 47 45 44 43 43 43 43 42 42 42 40 40 40 40 41 42 42 42 42 44 46 47 48 50 51 52 53 54 54 56 57 57 57 57 58 58
50 47 45 47 53 53 50 48 45 44 45 45 44 43 42 41 40 40 40 42 43 43 43 43 45 48 50 51 52 53 55 56 57 58 57 57 57 58 59 59 59 60
55 52 49 51 56 55 51 49 46 45 46 45 44 43 42 41 41 40 41 43 43 43 44 45 48 50 52 54 54 55 57 59 61 63 61 59 58 59 59 60 61 61
58 56 54 55 57 56 51 47 44 44 44 44 43 42 42 41 41 42 43 44 44 45 46 48 50 52 54 56 57 58 59 61 64 65 63 61 60 60 60 61 61 61
58 57 55 56 59 57 51 45 43 43 43 43 43 42 42 42 42 43 44 45 46 47 48 50 52 54 56 58 59 61 62 64 65 64 62 61 60 61 61 62 62 62
52 52 53 57 59 58 56 51 46 43 43 42 42 42 43 43 43 44 45 46 47 48 49 51 53 55 58 60 61 63 64 65 63 61 61 60 60 61 61 61 61 62
51 51 53 56 56 56 57 55 48 43 41 41 42 43 43 43 44 45 46 47 48 49 50 52 54 56 59 61 63 64 64 63 61 60 60 59 58 57 56 56 57 57
49 51 54 55 54 54 53 49 42 39 40 41 43 44 44 44 45 46 47 48 49 50 52 54 55 58 61 63 64 64 63 61 60 58 57 55 54 53 52 53 53 54
46 51 56 58 55 50 46 42 39 40 42 44 45 46 46 46 47 47 47 48 49 51 54 56 58 61 63 64 63 61 60 59 57 55 54 53 52 52 52 53 54 55

ECMWFNIL_500_spd_009.txt.gz
Wind_Speed
22 22 22 22 23 23 24 25 25 25 24 23 23 23 23 23 22 22 23 23 23 23 23 23 24 24 25 26 26 28 29 30 30 31 31 31 30 30 31 31 31 31
23 23 23 23 23 23 24 24 24 24 23 23 23 23 23 23 22 22 23 23 23 23 23 23 23 24 25 25 26 27 28 29 30 31 32 33 32 32 31 32 32 33
25 25 25 25 24 24 24 24 24 24 23 23 23 23 23 23 23 23 24 24 24 24 24 24 25 25 26 26 27 28 28 29 30 31 32 33 34 34 34 34 34 34
27 27 27 26 26 25 25 25 25 25 24 24 24 24 25 25 25 25 25 25 25 25 26 26 27 27 28 28 29 29 30 30 31 32 33 34 35 36 37 37 37 37
28 28 29 29 28 27 27 27 27 26 26 26 26 27 27 28 28 28 28 27 27 27 27 28 28 29 30 30 31 31 31 32 33 33 34 35 36 37 38 39 40 41
25 26 27 28 29 29 29 30 30 29 29 29 29 29 30 30 30 31 31 30 30 30 30 31 31 32 32 33 33 34 34 34 35 35 36 36 37 38 39 40 41 43
22 24 25 25 26 27 28 29 30 30 31 31 32 32 32 32 32 33 33 33 33 33 33 33 33 34 34 35 36 36 37 37 37 37 38 39 39 39 40 40 41 43
22 24 25 26 27 27 27 27 27 28 29 30 31 32 33 33 33 33 34 34 34 34 34 34 35 35 36 36 37 38 38 39 39 39 40 41 41 42 42 42 43 43
25 26 27 28 29 30 30 29 29 28 27 28 29 30 31 31 32 32 33 33 34 34 34 35 35 36 37 37 38 39 39 40 41 41 42 42 43 44 45 45 45 46
30 28 28 29 31 32 34 33 33 31 29 29 29 30 30 30 29 29 29 30 32 33 34 35 36 37 37 38 39 39 40 40 41 42 43 43 44 45 46 47 47 48
33 31 31 32 33 34 36 37 36 34 32 32 32 32 32 31 29 28 29 30 31 33 34 35 36 36 37 38 38 39 39 39 40 41 42 42 43 44 45 46 47 47
35 35 36 37 38 38 39 40 40 38 36 34 34 34 33 33 32 30 30 31 32 33 33 33 34 34 34 35 37 37 38 38 38 39 39 40 41 42 43 44 45 45
39 40 39 40 42 42 40 41 43 43 41 38 37 36 36 35 35 34 34 34 35 35 35 34 33 33 33 34 35 36 36 36 36 37 37 38 39 40 41 43 44 44
43 45 44 43 44 44 43 43 46 47 46 43 41 39 39 38 38 38 37 37 37 37 37 36 35 34 34 35 34 34 34 35 36 36 37 38 39 40 41 42 43 44
45 48 47 46 47 48 48 49 50 51 50 47 44 42 42 42 41 40 40 39 39 40 40 39 38 37 36 36 35 34 34 35 36 37 38 40 41 41 42 43 44 44
49 50 50 50 50 51 51 51 51 52 51 47 45 43 43 43 44 43 43 42 42 42 42 42 41 40 38 38 37 36 36 36 37 38 40 42 42 43 44 45 46 47
52 52 52 53 54 54 54 53 53 53 51 47 47 47 46 45 46 47 46 45 44 44 45 44 43 42 41 40 40 39 38 37 38 40 42 43 44 45 46 47 49 50
53 52 53 54 55 55 55 55 54 54 53 51 50 51 49 46 46 47 48 48 47 46 46 45 44 44 43 43 42 41 41 40 40 42 43 44 45 47 48 49 50 51
53 53 54 54 54 54 53 52 52 52 54 54 51 49 47 45 44 45 47 50 50 48 47 46 45 45 45 45 45 44 43 42 42 43 44 45 46 48 49 50 52 53
55 54 55 56 57 57 55 55 56 56 55 55 54 53 52 49 46 44 46 49 51 49 49 47 46 46 46 46 46 45 45 45 45 45 46 46 47 49 51 53 55 56
58 57 57 58 59 60 60 61 64 64 60 57 55 56 56 54 51 49 48 47 47 48 49 48 47 47 48 47 47 46 46 47 47 47 47 48 49 51 53 55 57 59
61 59 59 60 60 60 61 63 65 65 63 60 57 56 56 55 53 50 47 44 44 47 48 48 47 47 47 48 48 48 48 49 49 49 49 50 52 54 56 58 60 61
60 59 61 62 60 58 57 58 59 58 56 55 53 52 53 53 51 49 47 47 49 50 49 47 47 47 47 48 49 50 51 51 51 52 52 52 54 56 59 61 62 63
58 59 60 61 58 54 52 50 50 49 45 44 45 46 48 48 46 45 46 49 51 50 46 45 46 47 48 50 51 52 53 53 53 53 53 54 56 59 61 63 64 66
56 56 58 57 54 52 50 49 47 44 40 39 41 44 46 46 44 43 45 48 48 45 43 44 46 49 51 52 53 54 54 54 54 55 55 57 59 61 63 64 67 69
53 53 55 55 52 51 54 57 56 54 52 50 47 47 48 49 47 46 44 43 44 44 46 48 50 52 53 54 54 54 54 54 55 57 58 60 62 64 65 66 69 71

ECMWFNIL_500_spd_012.txt.gz
Wind_Speed
25 25 24 24 25 25 24 24 24 24 24 24 23 22 21 20 20 20 20 19 19 19 20 21 21 22 23 23 23 24 24 24 24 24 24 24 25 25 26 27 27 28
26 27 26 26 26 25 25 24 24 25 25 25 24 23 22 20 19 19 19 19 19 19 19 20 21 22 22 23 24 24 24 25 25 25 24 24 24 25 26 27 28 28
26 27 28 28 28 27 26 25 25 25 25 26 26 25 23 21 20 19 19 19 19 19 20 20 21 21 22 23 23 24 24 25 25 26 26 26 26 26 26 27 28 28
25 26 28 29 29 29 28 27 26 25 26 27 27 26 25 23 22 21 20 20 20 20 21 21 21 22 22 23 23 24 25 25 26 27 27 28 28 29 29 29 30 30
24 24 26 27 29 30 30 30 28 27 27 27 28 28 28 26 25 24 23 22 22 22 23 23 24 24 24 25 25 26 26 27 27 28 29 29 30 31 31 32 33 33
24 24 24 24 25 26 28 29 29 29 29 29 29 30 30 29 28 27 26 25 25 25 25 26 26 27 27 27 28 28 28 29 29 30 31 31 32 32 33 34 35 36
25 25 25 24 23 22 23 25 26 26 27 28 29 30 31 31 31 30 30 29 29 28 28 29 29 29 30 30 30 31 31 31 32 32 33 34 34 35 35 36 37 38
27 27 27 26 24 23 22 23 24 24 24 24 26 27 28 30 31 32 32 32 32 32 32 32 32 31 32 32 32 33 33 34 35 35 36 36 37 37 38 38 39 39
27 27 28 28 27 27 26 26 26 26 26 25 25 25 26 27 28 30 31 32 32 32 33 34 34 33 33 33 32 32 33 34 34 35 36 37 38 38 39 40 41 41
28 28 28 29 29 30 31 31 29 28 28 27 26 25 26 27 27 28 29 29 29 30 31 33 34 34 33 32 31 31 31 32 32 33 34 35 37 38 39 40 40 41
31 31 31 32 31 31 32 33 33 32 31 29 27 26 26 27 28 28 29 29 29 30 31 33 33 32 32 32 32 31 31 31 31 32 33 34 35 36 37 37 38 38
34 34 33 34 34 33 33 34 35 36 35 34 32 30 29 29 29 29 29 30 32 33 33 33 34 33 32 32 32 32 32 32 31 32 32 33 33 34 34 34 34 33
38 37 36 36 36 37 36 36 38 40 38 38 38 36 34 33 32 32 32 33 34 36 36 35 36 37 36 35 35 35 34 33 33 32 32 32 33 33 32 32 31 30
42 41 40 39 38 39 39 39 41 42 42 43 43 42 41 40 40 40 40 38 36 38 39 39 38 39 39 38 38 38 37 37 36 35 34 34 33 33 33 32 31 31
45 45 44 42 40 40 41 41 42 44 46 48 48 48 48 48 48 47 45 43 40 39 41 42 41 41 41 41 41 41 40 40 39 39 38 37 36 35 35 34 34 33
49 48 48 47 44 43 43 43 44 46 49 52 53 52 51 51 51 50 48 46 43 40 39 41 42 42 42 43 43 43 42 42 42 43 43 42 40 39 38 37 37 36
51 51 51 50 49 48 46 46 47 48 50 53 54 53 51 50 50 50 49 48 47 44 42 41 41 43 45 45 45 44 43 43 45 46 46 45 44 43 41 40 39 38
53 53 53 53 53 52 50 49 50 51 51 51 53 53 51 49 48 48 49 49 49 49 47 45 43 43 44 45 46 45 45 45 46 47 48 47 47 46 44 43 41 40
56 55 55 55 55 54 53 54 55 55 52 51 52 52 51 50 49 49 50 50 48 46 45 44 44 44 43 43 43 43 45 47 46 45 46 48 48 48 46 45 43 41
60 58 57 56 56 56 56 56 58 57 54 53 52 51 51 50 49 50 51 52 51 49 48 48 49 49 49 48 47 45 45 44 41 40 43 47 49 48 46 45 44 42
61 60 59 57 56 56 56 57 59 59 57 56 55 53 52 52 51 51 52 54 55 54 55 56 55 53 53 53 53 51 48 44 41 41 43 45 47 47 46 45 44 44
61 60 60 59 58 58 58 58 59 59 58 58 57 56 55 54 53 53 54 55 55 54 54 56 57 56 56 56 55 54 52 49 48 47 46 45 46 47 46 45 45 46
61 61 61 61 61 60 60 60 61 61 61 61 59 57 56 55 54 54 54 55 54 51 49 49 50 52 54 54 53 53 53 52 51 50 47 45 45 47 46 46 47 51
59 59 60 61 61 61 62 62 61 60 60 59 57 54 53 53 53 52 52 54 52 49 46 44 42 43 45 47 48 49 49 50 50 48 45 43 44 45 46 48 52 56
57 57 57 58 59 59 60 60 60 59 58 56 53 51 48 48 48 48 48 50 49 47 46 42 38 39 41 43 45 45 46 47 48 46 44 44 44 46 48 52 56 58
56 56 56 55 56 57 57 58 58 57 56 54 52 49 45 42 42 42 42 43 42 43 44 43 43 44 45 46 47 48 47 47 48 48 47 47 48 50 53 56 57 57

ECMWFNIL_500_spd_015.txt.gz
Wind_Speed
22 22 21 21 20 19 19 20 20 21 22 22 23 24 23 22 22 22 22 21 21 21 21 21 22 22 22 21 21 21 21 21 21 21 21 21 22 22 23 23 24 25
22 22 22 21 21 21 21 21 21 21 21 22 23 23 23 21 21 21 22 22 22 21 21 21 22 22 22 21 21 20 20 20 20 21 21 21 21 22 23 23 24 24
22 21 21 21 21 21 22 22 22 22 22 22 23 23 23 22 20 20 20 21 21 21 21 21 22 22 22 21 21 21 21 21 21 21 21 21 22 22 23 23 24 25
21 20 20 20 20 20 21 22 22 22 22 22 23 23 23 22 21 20 19 20 20 21 21 21 21 22 22 22 21 21 21 22 22 22 23 23 23 23 23 24 25 25
23 22 22 21 20 19 19 20 21 21 21 21 22 23 23 23 22 21 20 20 20 21 21 22 22 22 22 22 22 22 22 23 23 24 24 24 25 25 25 25 26 26
24 25 24 22 20 19 20 20 20 20 20 19 19 21 21 22 23 23 22 22 21 21 22 22 23 23 23 23 24 24 24 25 25 26 26 26 27 27 28 28 28 29
24 24 24 22 21 20 20 21 20 19 19 17 17 18 18 19 20 21 22 22 22 22 22 23 24 24 24 25 25 26 26 27 27 28 28 29 29 30 30 31 31 31
25 25 24 24 23 22 21 21 20 20 20 18 17 17 17 18 18 19 19 20 20 20 21 22 23 24 24 25 25 26 28 29 29 30 30 31 32 32 33 33 33 34
28 28 27 27 26 24 23 23 22 21 21 21 21 21 20 20 19 19 19 20 20 21 21 21 22 23 24 24 25 26 27 28 29 30 31 32 32 33 33 34 34 35
32 31 31 30 28 26 26 25 25 24 23 22 23 24 24 23 21 19 19 20 21 22 23 23 23 24 24 25 26 26 27 28 29 30 30 31 32 32 33 34 34 35
35 35 34 33 31 29 28 27 27 27 25 24 24 24 25 26 25 23 21 21 22 23 24 24 24 25 25 26 27 29 29 30 30 31 31 31 31 32 32 33 34 35
38 38 37 36 35 33 31 29 29 29 28 28 28 28 27 27 27 26 26 25 26 26 27 26 26 27 28 29 30 31 32 33 33 33 33 33 32 32 32 32 33 33
41 40 39 39 38 36 35 33 32 31 31 31 31 31 31 30 30 30 30 30 31 32 32 31 32 33 34 34 33 33 33 34 35 36 36 35 35 34 34 34 33 33
42 42 42 42 42 40 39 37 36 35 35 35 35 34 34 34 34 35 35 35 36 37 37 38 39 40 38 36 35 35 35 36 37 38 38 38 37 37 37 36 36 36
44 43 42 43 44 44 42 41 41 40 39 39 38 37 37 38 37 38 40 41 41 42 42 41 42 42 41 39 37 37 37 37 38 39 39 38 38 38 39 39 39 38
47 46 44 43 44 45 45 45 45 44 44 43 42 40 41 42 41 41 42 44 45 44 44 42 41 41 42 40 38 39 39 39 39 40 41 40 40 39 39 40 41 41
51 51 49 48 47 47 47 47 47 47 47 47 46 45 45 45 44 44 45 45 46 46 45 43 42 43 44 41 39 39 40 41 42 43 42 42 42 41 41 41 42 43
55 54 54 53 52 50 50 49 49 49 50 50 50 50 50 49 47 47 47 48 48 49 48 47 47 48 48 45 43 41 42 43 44 46 46 45 45 45 45 45 44 44
56 56 56 55 54 53 52 52 51 51 51 52 52 52 53 53 53 51 50 50 50 50 49 48 48 48 47 47 46 45 45 44 43 44 45 45 45 46 47 47 45 44
57 57 56 56 55 54 54 53 53 53 53 53 54 54 54 54 56 56 54 52 51 51 50 49 49 49 49 50 49 47 47 45 44 45 45 45 46 47 47 47 46 45
57 57 57 57 57 56 56 55 55 55 56 56 55 55 55 55 55 56 56 54 53 52 52 52 52 52 52 52 52 51 49 47 47 48 49 49 51 51 50 50 50 50
58 57 57 57 57 57 57 57 57 57 57 57 56 56 55 55 55 56 56 56 55 54 54 53 53 54 54 53 53 52 50 49 48 48 48 49 51 52 52 53 54 55
57 56 56 56 56 56 56 57 57 57 57 57 57 57 57 57 57 57 57 56 56 57 57 57 57 57 56 55 54 53 51 49 49 49 48 49 50 51 52 53 54 56
56 56 56 56 56 56 56 56 57 57 57 58 58 58 58 58 58 58 58 58 58 58 57 56 55 54 53 52 52 52 51 50 50 49 48 48 48 47 47 48 51 53
56 56 56 56 56 56 56 56 56 56 56 57 57 57 57 58 58 57 55 52 50 49 47 47 48 49 51 51 51 51 50 50 50 50 49 48 46 44 42 43 45 48
56 56 55 55 55 55 55 55 54 54 54 54 54 54 53 54 54 53 50 47 47 47 48 50 51 50 48 46 44 44 44 44 46 48 49 49 48 46 45 45 45 46

ECMWFNIL_500_spd_018.txt.gz
Wind_Speed
17 17 18 18 19 18 18 18 19 20 20 20 19 18 17 17 17 17 16 16 17 17 17 19 20 21 21 21 21 20 20 20 20 21 21 22 22 22 21 21 21 22
16 16 17 17 18 18 18 18 18 19 19 20 19 19 18 17 17 16 16 16 15 15 15 16 17 19 20 21 21 21 20 20 20 20 20 21 21 21 21 21 20 21
16 16 16 17 17 18 19 19 19 19 19 19 19 19 19 18 17 16 16 15 15 14 14 14 15 17 18 19 20 20 20 20 20 20 20 20 20 21 21 21 21 21
17 16 16 17 17 17 18 18 19 18 18 18 18 19 19 19 18 18 17 16 16 15 15 15 15 15 16 17 18 19 19 19 19 19 19 20 20 20 21 21 21 21
19 18 17 17 18 18 18 18 18 18 17 16 16 17 18 18 18 19 19 19 18 18 17 16 16 16 16 17 18 18 18 19 19 19 20 20 20 21 21 22 22 22
21 20 19 19 20 20 19 19 19 19 18 16 15 15 15 15 16 17 18 19 20 20 20 19 19 18 18 18 18 19 19 19 20 20 20 21 22 22 22 23 23 23
23 22 22 22 22 22 22 21 20 20 19 18 16 15 14 14 14 14 15 17 18 19 20 21 21 21 20 20 20 21 21 21 22 22 22 22 23 23 24 24 24 25
24 24 24 24 25 25 25 25 24 22 21 19 18 17 16 15 15 14 15 15 16 17 18 19 19 20 19 20 20 21 22 23 23 24 25 25 25 25 26 26 26 26
27 26 26 26 27 27 29 29 28 26 24 22 20 19 18 18 18 18 17 16 16 16 17 17 18 18 18 19 19 20 21 21 22 23 24 26 27 28 28 28 28 28
30 30 30 29 29 29 31 31 31 30 28 27 25 23 21 21 20 20 20 19 18 18 18 17 17 17 18 19 20 20 20 21 21 22 23 25 26 28 29 30 31 31
32 32 32 32 32 32 32 34 34 33 32 30 29 27 26 25 23 22 21 20 21 21 21 20 19 19 19 20 21 22 21 21 21 22 24 25 26 27 29 30 32 32
34 34 35 35 34 33 34 35 36 35 35 33 32 31 30 29 27 26 24 23 23 23 23 23 23 23 23 23 24 25 25 25 26 27 28 28 28 28 29 30 32 33
37 36 36 36 35 35 35 37 37 36 36 36 36 35 33 32 31 30 29 28 28 27 26 25 25 25 26 26 28 29 29 30 32 33 34 34 33 32 31 31 32 33
40 38 37 37 37 37 38 40 40 40 39 40 40 39 36 35 34 34 33 33 34 33 32 31 31 30 29 29 31 34 35 36 36 37 37 37 37 37 36 36 35 35
43 41 40 39 39 39 40 42 43 43 43 44 44 44 42 40 39 37 36 37 37 36 36 36 36 36 35 35 35 36 36 36 36 36 36 36 37 38 39 39 39 39
45 44 44 43 43 43 43 43 44 45 46 45 46 46 46 46 44 42 40 39 40 40 39 39 39 39 40 42 41 40 38 36 36 35 34 35 36 37 39 40 41 42
48 47 47 48 48 47 47 46 45 46 46 46 46 46 46 46 46 45 44 43 43 43 43 42 41 41 42 45 45 45 43 42 41 40 40 40 40 40 41 42 42 43
52 51 51 51 51 52 51 50 49 48 48 48 48 48 48 47 47 47 48 47 47 46 46 46 45 45 45 46 46 46 46 46 45 44 45 44 42 41 42 42 44 45
55 55 55 54 54 54 54 54 54 52 52 52 52 52 52 52 51 51 51 51 51 50 50 50 49 49 48 47 47 47 47 47 46 45 45 45 44 43 42 43 45 46
56 56 56 56 56 57 57 56 56 56 55 54 55 55 55 55 55 55 54 53 53 53 53 52 52 52 52 51 50 50 49 48 47 45 45 46 46 46 46 46 47 48
57 58 58 58 57 57 58 57 57 57 56 56 56 56 56 56 56 55 55 55 55 55 55 54 53 54 54 54 53 53 51 50 48 47 46 47 47 48 48 49 50 52
57 58 58 58 58 58 58 57 57 57 56 56 56 56 56 56 56 56 56 56 56 56 55 55 55 55 55 54 54 53 52 51 51 51 50 49 49 49 50 51 52 52
56 56 56 57 57 57 57 57 56 56 56 56 56 56 56 57 57 57 57 57 57 57 56 56 56 55 54 53 53 52 53 53 53 53 53 53 53 53 53 53 53 53
54 54 54 54 55 55 55 55 55 55 56 56 56 56 57 57 57 57 57 57 57 57 57 57 56 55 55 54 53 53 54 54 55 55 56 55 54 52 51 51 52 53
53 53 53 53 53 53 53 53 54 54 54 54 55 55 56 56 56 56 56 57 57 57 57 57 56 56 55 54 54 54 55 56 56 54 51 49 48 48 49 49 50 51
52 52 52 52 53 53 53 53 53 53 53 54 54 54 54 55 56 55 56 56 56 56 57 56 56 55 54 54 54 54 53 52 49 46 46 47 49 50 50 49 48 48

ECMWFNIL_500_spd_024.txt.gz
Wind_Speed
18 16 15 15 16 17 18 18 19 19 19 19 19 18 18 18 18 18 18 18 18 18 19 19 19 19 19 19 19 20 20 21 21 21 21 20 20 20 20 20 19 20
18 16 15 16 17 18 19 19 19 20 20 20 19 19 18 18 18 18 18 18 18 18 18 18 18 18 19 19 19 19 20 20 20 21 20 20 19 19 19 19 18 18
19 18 17 18 19 19 20 20 20 21 21 21 20 20 19 19 19 18 19 19 19 19 19 18 18 18 18 18 18 19 19 19 20 20 20 19 19 19 18 18 18 17
20 19 19 19 20 21 21 21 21 21 21 21 21 21 20 20 20 19 19 19 19 19 19 19 19 18 17 17 17 18 18 18 19 19 19 18 18 18 18 18 18 17
22 22 21 21 21 22 22 22 21 21 21 21 21 21 21 21 21 20 20 19 19 19 19 19 20 19 19 18 17 17 17 17 17 17 18 17 17 17 17 17 17 17
24 23 23 23 23 23 23 23 22 22 21 21 21 21 21 20 20 20 20 18 17 17 18 19 19 20 20 20 19 18 18 18 18 17 17 17 16 16 16 16 17 17
27 27 26 25 24 24 24 24 23 23 22 21 20 21 21 21 20 19 18 18 17 16 17 17 18 18 19 20 20 20 19 19 19 19 18 18 17 17 17 17 17 17
30 30 29 28 26 26 25 25 25 24 23 22 21 21 21 22 21 19 18 18 17 17 17 17 17 17 17 18 18 19 19 19 20 20 20 20 20 19 19 19 18 18
32 31 30 30 29 29 28 28 27 26 24 23 23 22 22 22 22 22 21 20 19 18 19 18 18 18 17 17 17 17 18 18 19 19 20 20 20 20 20 20 20 20
33 32 33 34 34 34 32 31 30 29 28 27 26 25 24 24 24 24 24 23 22 21 20 20 20 20 20 19 18 18 18 18 18 19 19 19 20 20 19 20 20 20
35 33 33 35 37 38 37 35 34 33 32 30 29 28 28 27 26 25 26 26 25 24 23 22 22 22 22 22 21 21 20 20 20 20 20 20 20 20 20 20 20 20
35 34 33 33 34 36 36 37 37 37 36 35 34 33 32 31 29 28 28 28 27 26 26 26 25 25 24 24 24 23 23 23 23 23 23 22 21 22 22 22 22 22
37 37 36 35 35 35 36 36 36 37 37 37 37 37 35 35 33 31 31 30 30 29 29 29 29 29 28 27 26 25 25 25 26 26 26 26 25 25 25 25 25 25
40 41 41 41 41 41 40 40 39 39 39 38 38 39 39 38 36 34 32 33 34 34 33 32 30 30 30 30 29 28 27 26 27 28 28 28 28 28 28 28 29 29
43 43 44 44 44 44 44 45 44 43 42 41 41 41 41 41 38 35 33 32 31 31 32 32 32 32 33 33 31 30 29 29 30 31 31 31 30 31 32 32 33 34
46 46 46 46 46 45 45 46 47 47 46 45 45 46 45 44 42 39 37 38 37 35 32 32 34 35 36 37 34 31 31 32 34 35 36 35 35 35 36 36 37 38
50 49 49 48 48 48 47 47 48 48 48 47 47 48 49 49 49 46 44 46 48 47 42 39 38 38 39 41 40 37 34 34 36 38 39 40 40 40 40 40 41 41
52 51 51 51 51 50 50 49 48 48 49 49 49 49 50 51 52 51 50 50 53 52 49 47 46 45 44 45 45 43 40 38 40 41 41 42 42 42 42 42 43 44
50 50 50 50 50 49 49 49 49 48 48 48 49 49 50 51 52 53 52 52 52 53 51 50 49 49 49 49 48 47 46 44 44 45 45 44 44 44 44 44 45 46
49 49 49 49 49 49 48 48 49 48 47 49 50 51 51 52 52 52 53 53 52 52 52 52 50 50 51 52 51 50 49 49 48 48 48 47 47 47 47 47 48 48
50 50 50 50 50 50 50 50 50 50 50 51 52 53 54 54 53 53 53 54 54 53 54 54 52 51 51 53 53 52 52 53 53 52 51 50 50 50 50 50 50 50
51 51 51 51 51 52 52 53 53 53 53 54 54 55 55 56 57 56 55 55 56 57 57 57 55 53 52 52 52 53 54 55 55 55 54 53 53 53 53 53 53 53
51 51 51 52 52 52 53 53 53 53 54 55 56 57 57 58 59 60 58 57 57 57 58 58 57 55 53 52 52 52 54 54 54 54 54 55 55 55 55 54 54 54
51 51 52 52 52 53 53 53 54 54 54 55 56 57 58 59 59 59 58 57 56 56 56 56 55 55 54 54 53 52 52 52 52 52 53 53 54 54 54 54 54 54
51 52 52 52 53 53 53 54 54 54 54 55 55 56 56 57 57 57 57 56 55 54 54 53 53 54 54 54 53 52 51 51 51 51 51 52 52 52 52 52 53 53
50 51 52 53 53 53 54 54 54 55 55 55 55 55 56 56 56 56 55 54 54 53 53 53 53 53 53 53 53 52 51 51 50 50 51 51 51 51 51 51 52 52

ECMWFNIL_500_spd_027.txt.gz
Wind_Speed
22 22 20 18 19 19 19 18 16 15 14 14 15 15 15 15 15 15 15 15 15 15 15 15 15 15 15 15 15 14 14 13 13 13 13 13 13 13 13 13 14 14
22 21 19 18 18 18 17 18 16 15 15 15 15 16 16 15 15 15 14 14 14 15 15 15 15 15 15 16 15 15 14 13 12 12 12 12 12 12 12 12 13 13
22 20 19 18 17 17 16 16 16 16 15 16 16 16 17 16 16 16 15 14 14 14 15 15 16 16 16 16 16 16 15 14 13 12 11 11 11 11 11 11 12 12
22 20 19 19 18 17 16 15 16 17 16 16 18 17 17 17 17 16 15 15 15 14 14 15 15 16 16 16 16 17 16 15 14 13 12 11 11 11 11 11 11 12
22 21 20 20 20 18 17 16 16 17 17 18 18 18 18 18 17 17 16 15 15 14 15 15 15 16 16 16 16 17 17 16 15 14 13 12 12 12 11 12 12 12
22 21 21 22 22 21 19 18 17 18 18 19 19 19 19 18 18 18 17 16 14 13 14 14 15 15 15 16 16 17 17 17 17 17 16 15 14 13 12 12 12 12
23 20 22 24 25 23 21 19 18 19 20 20 21 21 20 19 19 18 18 17 16 14 14 14 14 15 15 16 16 16 17 17 18 18 18 18 17 15 14 13 13 13
27 26 27 27 27 25 22 20 20 20 21 21 22 21 21 20 21 20 19 19 19 17 17 16 16 15 16 16 16 17 16 16 16 17 18 18 18 17 16 15 15 15
30 32 32 30 29 27 25 23 23 22 22 22 22 22 22 22 22 21 21 22 22 22 21 20 19 17 16 17 18 18 18 17 16 16 17 17 17 17 16 16 15 15
32 35 35 34 32 30 29 29 28 26 26 26 26 26 25 24 23 23 25 25 24 24 24 23 22 21 19 19 19 19 20 19 18 17 17 17 16 16 16 16 16 15
32 33 34 34 32 31 32 33 32 31 30 29 30 30 29 28 28 28 28 28 27 26 26 25 25 24 23 22 21 21 22 22 21 20 19 18 18 17 17 18 18 17
35 34 33 33 33 33 33 33 34 33 31 30 30 30 31 32 33 32 31 31 31 30 28 28 29 27 26 25 25 25 25 25 25 24 23 22 20 19 19 20 20 19
39 39 38 37 36 36 35 35 35 34 33 31 30 29 30 32 33 33 31 30 31 32 32 32 31 29 28 28 28 28 28 28 28 27 26 25 23 23 23 23 23 23
42 42 42 41 40 40 39 39 38 37 37 37 35 34 34 35 35 35 35 33 32 33 33 33 31 31 31 31 31 31 30 29 29 29 29 28 27 26 25 25 26 26
46 46 45 45 44 44 43 43 43 42 42 42 41 41 40 40 40 40 40 39 38 36 35 35 34 33 32 33 34 34 33 31 31 31 31 31 31 30 28 28 28 29
48 49 49 49 49 48 47 47 47 47 46 46 46 45 44 44 44 43 43 43 42 41 40 39 38 37 35 33 32 32 33 33 32 33 33 33 33 33 32 33 33 32
49 50 51 51 51 51 51 51 51 51 50 49 48 48 47 47 46 46 46 45 45 45 44 43 43 42 40 37 36 36 37 37 36 36 36 35 35 35 35 35 36 37
51 51 52 53 53 53 54 54 54 53 53 52 50 49 48 48 48 47 47 47 48 48 48 47 47 46 46 45 45 45 46 45 44 43 42 42 42 41 40 38 38 39
49 50 51 53 53 54 55 56 56 56 55 55 53 52 50 50 50 49 49 49 49 49 49 49 48 48 48 48 48 48 48 48 47 46 47 48 48 48 46 43 41 42
46 47 48 50 51 52 53 53 54 54 55 55 55 54 54 53 53 52 52 52 51 50 50 49 48 48 48 48 49 49 49 49 47 46 46 47 49 49 48 46 45 46
48 48 48 49 50 51 51 51 51 52 52 52 53 54 54 54 53 53 53 53 53 53 52 51 50 49 48 49 50 50 50 50 50 49 48 47 47 48 48 47 48 48
51 50 50 50 50 51 51 51 51 51 51 51 51 52 52 52 52 51 52 53 53 53 52 51 51 51 50 51 51 51 51 51 51 51 50 49 48 48 48 48 49 49
54 53 52 51 51 50 51 51 51 51 51 51 51 51 52 52 52 51 52 52 52 52 51 51 52 54 54 54 54 53 53 53 52 51 51 51 50 50 50 49 49 50
55 53 51 49 49 50 50 50 50 50 51 51 51 51 51 51 52 52 52 51 51 52 51 52 52 53 55 55 55 55 55 54 52 51 50 50 50 50 51 50 50 50
55 53 51 50 50 50 50 50 50 50 51 51 51 51 51 51 52 52 51 51 51 51 52 52 52 53 53 54 53 53 52 52 51 50 50 50 49 49 50 50 50 49
54 54 53 52 51 50 50 49 50 50 51 51 52 52 53 53 53 53 52 52 51 51 51 52 52 53 53 53 53 52 51 50 50 50 49 49 49 49 49 49 49 49

ECMWFNIL_500_spd_030.txt.gz
Wind_Speed
33 32 24 17 17 17 17 17 18 17 16 14 12 10 10 11 11 12 12 12 12 12 11 10 10 10 11 11 12 13 13 14 15 16 17 17 17 17 17 16 16 15
31 31 25 20 18 17 16 17 18 18 17 15 13 11 10 11 11 11 12 12 13 13 13 12 11 11 11 11 12 12 13 14 14 15 16 17 17 17 17 16 16 16
23 23 21 21 20 18 16 17 18 19 18 16 14 12 12 11 12 12 12 12 12 13 13 14 13 13 12 12 12 13 13 14 14 15 16 16 17 17 17 17 16 16
20 20 20 22 21 18 17 18 18 19 20 18 16 14 13 13 13 13 13 13 13 13 13 14 14 14 14 13 13 13 14 14 15 15 16 16 16 17 17 16 16 16
19 20 21 23 23 19 18 19 19 19 19 20 19 16 15 15 15 15 15 15 15 15 15 14 14 14 14 14 14 14 14 14 15 16 16 16 16 16 17 16 16 16
17 19 21 24 24 21 19 20 20 19 18 18 19 19 18 17 18 18 17 17 17 16 16 15 14 13 13 13 13 13 14 14 15 15 16 17 17 17 17 17 17 17
17 18 20 22 23 20 18 17 18 18 17 16 17 18 19 20 20 20 20 19 19 18 17 16 14 13 13 13 13 14 14 14 14 14 15 16 17 18 18 18 18 17
20 21 22 22 22 22 21 19 19 19 19 19 19 19 20 21 22 21 20 20 20 21 20 18 16 15 14 14 14 14 15 15 15 15 15 15 16 17 18 19 19 19
22 22 24 25 24 25 27 25 24 23 22 22 22 21 21 22 23 22 21 21 21 22 22 21 20 19 18 17 17 16 17 17 17 17 17 16 16 16 17 17 18 19
26 25 26 28 26 25 27 26 25 25 23 23 23 23 23 23 24 25 26 25 25 25 26 25 24 23 21 20 20 19 20 20 20 20 19 18 18 17 17 17 17 18
27 25 22 22 22 22 23 25 25 25 24 23 24 24 24 25 25 26 28 29 28 29 29 29 28 27 26 25 24 23 23 23 23 23 22 22 21 20 20 19 19 19
29 26 22 22 25 27 27 28 28 28 27 27 27 26 25 26 27 27 27 28 29 31 31 31 31 29 28 28 29 28 28 28 27 27 26 25 24 23 22 22 22 21
28 30 29 31 34 35 33 33 32 32 33 33 32 30 28 28 28 28 28 27 27 28 29 29 29 27 26 27 29 31 32 32 31 31 30 28 27 26 25 25 25 25
30 33 35 35 36 36 36 36 36 37 37 37 36 34 32 32 31 31 31 31 30 31 32 32 31 30 29 29 30 30 31 31 31 33 33 31 30 29 28 28 28 28
38 40 41 41 40 39 40 40 40 40 40 40 39 38 37 37 36 36 36 36 36 37 38 38 37 36 35 34 33 33 33 32 31 33 35 35 34 33 32 31 31 31
42 42 43 44 45 45 44 43 43 43 43 42 42 42 41 41 40 40 40 41 41 41 41 41 41 40 39 38 37 36 36 35 33 33 34 35 35 35 35 34 34 34
42 42 42 44 45 47 48 47 46 46 45 45 45 44 44 44 44 44 44 44 44 44 45 45 45 44 43 42 40 39 38 38 37 36 36 36 36 36 36 36 36 36
42 42 42 42 42 44 46 48 48 47 47 47 46 46 46 46 46 46 46 46 47 47 47 47 47 46 46 44 43 43 42 41 41 40 40 40 40 40 41 42 42 41
43 43 43 43 43 43 43 45 46 46 46 45 45 45 45 46 47 47 47 48 48 48 48 48 48 47 46 45 45 45 45 45 44 43 43 43 44 44 46 47 46 45
43 44 44 44 44 44 43 42 43 43 43 43 43 44 44 45 46 46 47 48 48 48 48 47 47 47 46 46 46 46 46 47 46 46 46 46 46 47 47 48 47 46
46 46 46 45 44 44 43 42 42 42 43 45 46 47 48 47 48 48 48 48 47 47 46 46 46 46 46 46 46 46 47 47 47 47 47 48 48 48 48 48 47 47
48 48 47 46 45 45 45 45 45 46 48 49 50 50 50 50 51 51 50 50 49 47 46 46 45 46 46 46 46 46 47 47 47 47 47 47 48 48 48 48 48 48
50 48 48 48 48 47 47 48 49 50 51 51 52 52 52 53 54 53 52 51 50 49 48 47 47 46 46 46 46 47 47 48 48 48 47 47 47 48 48 49 49 49
52 51 50 50 49 49 49 50 51 52 52 53 53 54 54 54 53 52 52 51 50 50 50 49 49 48 48 48 48 48 48 48 48 49 48 48 48 48 48 49 49 49
53 53 52 51 51 51 52 52 53 54 54 55 54 54 53 52 51 51 51 52 51 51 51 51 51 51 50 50 50 50 49 49 49 49 49 49 49 49 49 49 49 49
54 55 55 56 57 57 57 57 57 56 55 54 53 53 52 52 52 52 52 52 52 52 52 52 51 51 52 51 51 51 51 50 50 50 50 50 50 49 49 50 50 50

ECMWFNIL_500_spd_033.txt.gz
Wind_Speed
19 21 24 23 20 20 22 21 20 20 19 18 16 14 13 13 13 12 11 10 10 10 10 11 11 12 13 13 13 12 12 13 14 15 16 17 18 19 19 20 20 21
21 21 23 21 17 18 20 20 19 20 19 18 17 15 14 14 14 14 13 12 11 11 11 11 12 12 12 13 13 13 13 13 13 13 14 15 16 17 17 18 19 20
23 21 20 19 16 15 18 19 19 20 19 18 17 15 14 14 14 15 15 14 13 12 12 12 12 12 13 13 13 13 14 14 14 14 14 14 14 14 15 16 17 18
19 17 17 17 15 13 16 17 18 19 19 18 17 16 15 15 15 16 16 16 15 14 13 13 12 12 13 13 13 14 14 14 15 15 15 14 14 14 14 15 16 16
16 15 15 16 16 15 16 19 20 20 20 20 18 17 17 16 17 17 17 16 16 15 14 13 12 12 12 13 13 14 14 14 14 14 15 15 15 15 14 14 15 15
16 15 15 15 16 16 16 19 22 23 22 20 18 18 18 19 18 18 17 16 16 15 14 13 12 11 11 11 12 12 12 13 13 13 14 14 15 15 15 15 15 16
15 14 15 15 16 17 17 19 21 22 21 19 17 17 19 19 17 16 14 14 14 14 14 13 12 11 11 11 11 11 12 12 13 14 14 14 15 15 16 16 16 17
17 18 19 19 18 18 19 20 20 19 19 18 18 20 20 18 16 14 14 14 14 14 13 13 12 12 12 12 12 12 13 13 14 15 16 16 16 17 17 17 17 18
20 21 21 21 20 19 20 21 21 20 20 22 23 23 23 21 18 17 16 16 16 16 15 15 16 15 15 15 15 15 15 15 16 16 17 17 18 19 19 19 19 19
21 22 23 22 19 18 21 23 23 22 22 23 23 23 23 23 22 21 20 20 21 21 20 20 21 20 19 19 19 19 18 19 19 19 19 19 19 20 20 20 20 20
22 22 22 22 22 21 20 21 21 22 20 19 21 23 24 25 25 26 25 24 23 23 23 23 24 24 24 23 23 23 22 23 22 22 21 21 21 21 22 22 22 23
24 23 21 20 21 21 17 15 17 19 20 22 24 24 24 25 25 26 25 24 23 24 24 24 24 24 24 24 24 24 23 22 22 23 23 23 22 21 22 23 24 25
27 24 19 12 12 16 16 17 22 26 27 27 26 23 23 23 23 24 24 24 22 22 23 23 23 24 24 24 25 25 24 24 24 25 26 26 25 23 23 23 24 25
29 26 22 19 20 23 25 27 30 31 30 28 27 26 25 25 27 28 29 28 25 23 24 24 24 25 27 27 28 29 29 29 29 29 30 30 30 29 28 27 27 26
31 29 28 28 29 31 32 32 32 32 31 30 30 29 27 28 30 31 31 31 30 30 31 29 28 28 30 31 31 32 32 32 33 32 32 33 33 32 31 32 32 30
34 34 33 32 31 31 31 31 32 33 33 32 31 30 29 29 29 28 28 29 32 34 36 34 32 33 33 33 34 34 34 34 35 35 34 34 35 34 32 33 35 35
38 39 39 37 35 33 31 32 34 36 35 33 32 32 32 32 32 32 32 35 38 40 39 36 35 35 34 35 35 36 36 37 37 37 37 36 36 36 35 34 35 37
42 41 41 40 39 38 36 37 39 38 36 35 35 34 34 35 37 39 39 41 42 41 38 36 35 35 35 35 36 37 38 39 39 40 39 39 38 38 38 37 37 38
41 41 41 42 42 42 42 41 40 38 37 37 37 37 37 37 38 39 40 39 38 37 36 36 36 36 36 36 37 38 39 39 40 41 41 41 40 40 40 40 41 42
43 43 43 44 44 44 43 42 40 39 38 38 39 40 41 40 39 39 38 37 36 36 37 38 38 39 39 39 40 40 41 41 41 41 41 42 42 41 42 43 43 44
45 45 45 45 44 43 42 41 40 40 40 40 41 42 43 42 41 40 39 39 39 40 41 41 42 42 42 43 44 44 44 43 43 42 42 42 42 43 43 44 45 45
46 47 46 45 45 44 44 43 43 43 44 43 43 43 43 43 42 42 42 42 43 44 44 44 45 45 46 47 48 47 47 46 45 45 45 44 44 44 44 44 45 45
47 48 48 48 48 48 48 49 49 49 48 47 46 45 44 44 44 45 45 45 46 46 46 46 47 48 49 50 50 50 49 48 47 47 47 46 46 46 45 45 45 46
50 50 49 49 50 51 52 53 53 52 51 49 48 47 47 46 46 46 46 46 47 47 48 48 49 51 52 52 51 50 49 49 49 48 48 48 47 47 47 47 47 47
49 49 48 48 48 49 51 52 52 51 50 49 48 49 49 49 48 48 48 48 49 50 52 53 53 53 52 52 51 51 51 51 50 50 49 49 49 48 48 48 48 48
49 49 47 46 46 47 48 49 50 50 50 49 49 50 50 51 51 51 52 53 53 54 54 54 53 53 52 52 52 52 52 52 51 51 50 49 49 49 48 48 48 48

ECMWFNIL_500_spd_036.txt.gz
Wind_Speed
21 21 20 18 18 20 22 20 18 17 16 15 15 15 15 16 16 15 14 14 14 14 14 14 14 14 14 14 15 15 15 15 16 16 17 17 17 17 17 16 16 15
19 21 21 20 20 21 22 19 16 17 17 15 14 14 14 15 15 15 15 14 14 14 14 14 14 14 14 15 15 15 15 15 15 15 15 16 16 16 16 15 15 15
17 20 21 21 22 21 20 17 16 20 20 16 14 14 14 14 15 15 15 15 15 14 14 14 14 14 15 15 15 16 16 16 16 16 16 15 15 15 15 14 14 14
14 15 14 15 16 16 16 15 17 22 20 15 14 14 14 15 15 16 15 15 15 15 15 15 15 15 15 15 15 16 16 17 17 17 17 16 16 16 15 15 14 14
12 11 11 11 12 12 13 14 16 19 18 16 16 15 15 15 14 14 15 15 15 15 15 15 15 14 14 14 15 15 16 16 16 16 16 16 16 16 15 15 15 14
10 10 11 11 10 11 12 12 14 17 18 18 17 17 17 16 13 13 13 14 14 14 15 15 15 14 13 13 13 14 14 14 14 13 13 13 13 13 14 14 14 14
9 10 10 10 11 12 12 12 14 17 19 19 17 17 17 16 14 13 14 14 14 14 14 14 14 14 13 13 12 12 13 12 12 12 11 11 11 12 13 14 14 14
10 11 12 12 13 14 15 16 16 18 20 20 18 16 16 16 17 17 17 16 16 14 13 13 13 13 13 12 12 12 12 13 13 12 12 11 11 11 12 13 14 15
11 13 14 15 15 14 15 17 17 18 21 21 19 18 17 18 20 20 20 19 18 16 14 13 13 14 14 14 14 13 14 14 15 14 14 13 13 13 13 13 13 14
13 14 16 17 16 15 15 16 17 18 20 21 20 19 19 20 21 21 20 19 19 18 17 17 18 18 19 19 19 18 17 17 17 17 16 16 16 16 16 16 16 16
16 16 16 17 17 16 17 18 19 19 19 20 20 20 19 19 20 20 20 20 20 20 21 22 23 24 23 23 23 22 20 20 20 20 19 19 19 19 19 19 19 19
20 21 20 19 18 17 17 19 21 22 20 17 17 18 17 18 20 20 21 22 22 22 23 22 22 22 23 23 21 19 18 19 20 20 19 19 18 19 21 21 19 19
26 27 25 22 19 17 16 16 17 20 20 16 16 18 20 23 24 22 21 21 22 23 23 21 20 20 21 21 20 18 17 19 20 20 20 20 19 21 23 24 22 22
29 29 27 24 22 20 18 17 16 17 19 20 23 25 26 26 25 23 22 23 24 25 24 24 24 25 25 24 24 23 23 23 24 24 24 24 24 25 27 27 27 26
31 31 29 28 26 24 22 22 22 23 25 28 29 27 27 26 24 23 24 25 25 26 27 28 29 30 30 30 30 30 29 28 29 29 29 29 29 29 30 30 28 28
35 35 34 32 30 29 28 28 28 28 30 32 31 28 27 26 25 25 27 27 27 27 27 29 31 31 31 32 32 32 31 31 32 32 32 32 32 31 32 31 29 28
38 38 38 36 35 34 34 33 33 33 31 31 31 29 28 28 29 30 31 31 31 31 30 32 33 32 32 33 33 34 35 35 33 32 31 31 31 32 32 33 32 32
42 42 41 40 39 39 37 37 37 37 35 34 34 33 32 32 33 35 34 34 34 34 33 33 34 34 35 36 37 37 36 33 32 31 31 31 32 32 33 33 34 35
45 44 43 42 41 41 40 39 39 39 38 38 38 36 35 35 35 36 36 36 35 34 34 34 34 35 36 36 36 35 33 32 32 32 33 33 33 34 34 35 36 37
46 45 45 44 43 43 42 41 39 38 38 38 38 38 37 37 37 37 37 36 34 34 34 35 36 36 36 36 36 35 35 35 35 35 34 35 35 36 36 37 38 39
45 44 43 43 43 43 42 40 39 38 39 39 39 39 39 39 38 37 37 36 36 37 37 38 38 39 39 38 38 38 38 37 37 37 37 37 37 38 39 39 40 40
39 40 40 39 39 39 39 40 40 40 40 40 40 40 41 40 39 39 39 39 40 41 42 41 41 41 41 41 40 40 40 39 39 39 39 40 41 42 43 42 42 41
37 37 37 38 38 38 40 40 41 41 41 42 43 43 43 43 42 42 43 43 43 44 44 43 43 42 42 42 42 41 41 41 41 41 43 44 46 46 46 45 44 43
42 41 40 40 40 41 43 44 45 46 46 46 46 46 45 44 44 45 45 45 45 44 44 43 42 42 42 42 42 42 42 42 44 45 47 48 48 48 48 47 47 46
42 42 42 41 41 43 44 45 46 47 47 47 46 45 44 43 43 44 44 45 45 44 44 43 43 42 42 42 43 43 43 45 47 48 49 49 48 48 47 48 48 48
45 45 43 42 43 44 44 44 45 46 47 46 44 43 42 42 43 43 44 44 44 43 43 44 44 44 44 44 45 45 46 47 48 48 48 48 48 48 48 48 48 48

ECMWFNIL_500_spd_039.txt.gz
Wind_Speed
17 17 17 19 20 21 20 19 19 20 21 18 15 14 14 13 13 12 11 10 11 13 14 15 16 18 19 19 19 19 19 19 19 18 18 18 17 16 16 15 15 15
12 13 14 16 19 21 21 21 20 22 23 20 14 11 10 11 11 11 10 10 11 12 13 14 15 16 17 18 18 18 18 18 18 18 17 17 16 16 15 15 14 14
12 12 13 15 16 18 20 22 23 24 24 20 15 12 10 11 11 10 10 10 10 12 13 14 15 16 16 17 18 18 18 18 18 18 17 17 16 15 14 14 13 13
12 13 13 13 13 13 15 18 19 21 22 20 17 14 13 13 12 11 11 11 11 12 13 14 16 16 17 18 18 19 19 18 18 18 18 17 16 15 14 13 13 13
11 11 11 11 11 11 12 13 14 16 19 19 17 16 15 14 14 13 13 13 13 13 14 15 16 17 18 19 19 19 19 19 19 18 18 17 16 15 13 12 12 12
11 11 11 11 12 12 13 13 13 14 16 17 15 15 15 15 14 14 13 13 12 12 13 14 15 16 17 17 18 18 18 18 17 17 16 15 14 13 12 11 10 10
12 11 11 12 13 13 13 13 13 14 16 17 16 15 15 14 13 13 13 13 12 11 12 13 14 14 15 15 15 16 16 15 15 15 14 14 13 12 11 10 9 9
11 11 12 12 13 13 14 15 15 16 17 19 19 18 16 14 13 13 13 14 14 14 14 13 14 14 14 14 15 15 15 14 14 14 13 13 13 12 11 10 10 10
11 12 12 12 13 13 14 15 16 17 19 20 22 21 18 16 15 15 14 15 16 16 15 15 15 15 14 14 14 15 15 15 15 15 14 14 14 14 13 13 12 12
13 13 13 13 12 13 13 14 16 18 19 20 22 22 20 18 18 18 17 16 16 16 15 14 15 16 16 16 17 17 18 18 18 18 17 17 16 16 17 17 17 16
12 13 14 14 13 14 14 15 16 18 20 21 22 23 22 20 20 20 19 16 15 15 16 15 15 17 19 20 21 22 23 24 24 23 21 20 20 19 20 20 20 20
13 14 15 15 16 16 16 16 17 18 21 21 21 23 23 22 22 22 20 17 16 17 19 19 19 20 21 22 22 22 22 23 25 25 24 23 22 22 22 20 19 19
18 18 18 19 20 20 19 18 18 18 20 20 20 22 24 23 21 21 20 19 20 22 23 23 23 22 22 22 21 20 19 19 20 22 22 20 20 22 23 22 21 21
23 23 23 24 24 24 23 21 20 20 21 21 21 20 22 23 21 20 19 21 24 25 26 25 24 23 23 23 23 22 21 20 20 21 23 22 20 21 24 25 26 26
27 27 27 27 28 27 27 25 24 24 24 24 23 22 22 24 25 24 25 26 26 27 26 24 23 23 24 24 25 26 25 25 26 27 29 29 29 29 28 29 30 31
31 31 31 31 31 31 30 29 28 28 27 27 27 27 27 28 30 32 32 31 29 28 28 25 24 25 25 25 26 28 28 28 29 30 31 33 35 34 32 31 31 33
34 34 35 35 35 35 34 33 33 33 32 32 31 32 33 34 36 38 37 33 30 30 30 29 28 28 28 28 29 31 31 31 31 31 32 34 35 36 35 34 33 34
39 39 39 39 40 39 39 38 38 38 37 36 36 36 37 38 39 40 38 34 32 31 32 33 33 32 32 33 34 34 35 35 34 33 33 35 37 38 38 37 35 35
42 42 43 43 43 43 43 43 43 43 42 41 39 39 39 40 40 40 38 36 36 35 35 36 36 36 35 35 35 36 37 37 37 36 36 37 38 38 38 37 36 36
42 43 44 45 46 46 46 45 45 44 44 43 42 41 41 41 42 41 39 38 38 38 37 37 37 37 36 36 36 36 37 38 38 38 38 38 38 38 37 37 37 37
43 44 44 45 45 46 47 47 46 45 44 44 43 43 43 43 43 43 41 39 38 37 37 37 36 36 37 37 38 38 39 39 39 39 39 39 39 39 39 39 40 39
47 46 46 46 44 44 44 45 45 44 44 43 43 43 42 42 42 43 42 41 39 39 38 37 37 37 38 39 40 40 41 41 41 40 40 40 41 42 42 42 42 40
47 45 44 43 41 40 40 41 40 40 40 40 40 40 39 39 39 40 42 42 41 40 39 38 39 39 40 41 42 43 43 43 42 42 42 43 43 44 44 43 42 41
46 44 42 41 40 39 39 39 38 38 37 36 36 37 38 39 40 40 40 41 41 41 41 41 42 43 43 44 44 45 45 45 45 45 44 44 44 44 44 43 42 42
45 45 44 43 43 43 42 42 41 41 41 40 40 40 40 41 42 42 42 43 43 44 45 45 45 46 46 46 46 45 45 44 44 44 43 43 43 43 43 43 43 43
50 50 49 48 47 47 47 47 47 46 46 45 44 43 42 43 45 45 46 46 46 46 46 46 46 46 47 46 45 44 43 43 42 42 42 42 43 43 44 44 44 44

ECMWFNIL_500_spd_045.txt.gz
Wind_Speed
25 25 24 22 21 20 20 21 22 22 21 19 19 19 18 17 16 16 16 16 17 17 17 17 16 17 16 16 16 15 15 13 12 12 11 11 11 12 12 13 13 13
27 27 26 25 24 22 21 20 21 22 21 19 18 18 18 17 16 16 17 18 19 18 17 16 16 16 16 16 16 15 15 15 14 13 12 11 11 11 12 13 13 14
26 28 28 27 26 24 21 19 20 20 19 18 18 17 17 17 17 19 20 20 20 18 16 15 14 14 14 15 15 15 15 15 15 14 14 13 13 12 13 13 13 14
25 27 27 25 25 24 21 18 17 18 18 18 17 17 18 18 18 20 21 20 19 17 16 14 13 13 14 15 15 15 16 16 16 16 16 16 15 15 14 14 14 14
24 27 25 23 23 24 22 20 18 18 18 18 17 17 18 17 16 18 19 19 19 17 16 16 15 15 16 16 17 17 17 17 17 17 17 17 17 17 17 16 15 15
23 25 23 21 20 20 20 21 20 20 19 19 19 18 18 16 15 15 17 18 19 19 19 18 17 17 17 18 18 18 18 18 18 18 17 17 17 16 16 16 15 15
23 23 21 20 19 18 19 21 22 21 21 20 20 19 19 18 16 15 16 18 19 20 20 20 19 18 19 19 19 19 18 17 17 17 16 16 16 16 15 15 15 15
22 23 22 21 20 20 21 23 23 22 21 21 21 21 20 19 18 17 17 18 19 20 20 20 20 20 20 20 20 20 19 17 17 16 16 16 17 16 16 16 15 15
25 25 23 22 23 23 23 24 24 23 23 23 23 22 21 20 18 17 17 18 19 20 21 21 21 20 20 21 21 21 20 19 19 19 19 19 19 19 18 18 17 17
26 25 23 23 23 23 24 25 25 25 25 25 24 23 21 19 18 18 18 18 19 21 22 22 22 22 21 21 22 22 22 22 22 22 22 22 21 21 20 19 19 19
25 23 23 23 23 24 25 25 26 26 26 25 24 23 21 20 19 18 18 18 19 20 21 22 22 22 23 23 22 23 23 22 22 22 23 23 22 22 21 21 21 21
24 24 24 24 24 24 25 25 24 24 25 25 25 24 22 21 20 19 19 19 20 21 21 21 22 22 23 24 23 23 22 21 20 20 21 22 22 23 24 24 25 26
23 24 24 24 24 24 24 24 24 25 25 25 25 24 23 22 21 21 20 20 21 21 22 22 22 23 25 25 25 24 23 21 20 20 21 23 25 26 27 28 29 29
21 22 23 23 24 24 25 26 26 26 26 26 26 25 24 24 23 22 22 21 21 21 23 23 23 24 26 27 26 26 24 23 22 22 22 23 25 28 30 31 31 31
20 22 24 25 25 25 26 26 26 26 26 26 26 26 26 26 26 26 25 24 23 24 26 25 25 26 27 28 29 28 27 26 24 23 22 23 25 28 30 32 33 32
21 22 24 25 25 26 26 26 26 25 25 26 28 29 30 30 30 29 28 26 27 28 29 29 29 29 29 29 30 30 29 29 27 26 26 27 29 30 31 33 34 34
23 23 24 25 25 25 25 25 26 26 27 30 32 32 32 31 30 28 28 29 30 31 30 29 30 30 30 30 30 30 31 31 29 30 32 33 32 31 33 36 37 37
27 27 28 28 29 29 29 29 29 30 31 34 35 36 36 35 33 31 31 32 33 33 32 32 33 33 32 31 31 32 32 33 33 34 36 36 34 32 31 32 34 35
31 31 31 32 33 33 34 34 34 34 36 39 40 40 39 37 35 34 34 34 34 33 34 37 39 40 38 37 36 35 36 36 36 37 38 39 38 37 34 31 31 32
34 35 35 35 36 37 37 37 38 39 41 41 40 40 39 39 39 38 37 37 36 35 36 38 40 40 40 40 40 39 40 40 40 42 43 44 43 41 40 39 38 39
38 38 39 39 40 40 41 42 42 43 44 43 43 44 45 46 45 43 41 40 39 39 39 40 40 40 41 42 42 42 43 43 43 45 47 48 47 46 46 47 48 48
42 42 42 42 41 41 41 42 43 44 46 47 49 50 49 48 47 45 43 42 41 40 41 43 43 42 43 43 43 43 44 44 44 45 47 48 49 49 49 50 50 51
42 40 39 38 37 37 38 38 39 40 42 44 47 49 49 48 47 45 44 43 42 42 43 43 43 43 43 44 43 42 43 44 46 47 49 51 52 52 51 50 50 51
39 38 38 38 40 41 42 42 43 43 43 42 44 46 47 46 45 43 43 44 45 45 43 42 43 44 45 45 45 44 45 47 49 50 52 53 54 54 54 53 53 53
42 44 45 47 49 50 50 49 49 49 48 46 45 45 46 45 45 47 50 52 51 48 45 44 45 45 45 45 46 47 47 48 49 50 51 52 54 54 54 54 53 52
51 53 54 55 55 55 54 53 52 52 52 51 50 50 51 52 53 56 58 58 56 52 49 47 46 46 46 46 46 47 47 48 48 49 49 50 51 51 50 49 49 49

ECMWFNIL_500_spd_048.txt.gz
Wind_Speed
16 19 21 23 24 23 23 22 21 21 20 16 13 14 16 16 17 17 18 17 16 14 13 13 14 15 16 16 16 16 16 16 16 16 17 17 17 17 17 17 16 16
17 19 21 24 25 24 23 23 23 23 22 19 16 15 17 17 17 17 18 17 16 15 15 15 16 17 17 18 17 16 15 15 15 15 15 16 16 16 16 16 17 17
18 20 22 23 23 24 24 24 25 26 25 22 19 17 17 17 17 17 17 17 17 17 17 17 16 17 17 17 17 16 15 14 14 14 15 15 15 15 15 16 16 17
21 22 22 22 23 23 24 25 27 28 26 22 18 17 16 15 15 15 16 17 17 17 18 17 17 16 15 16 15 15 14 14 15 15 16 16 16 16 16 17 17 17
24 24 22 23 24 23 23 25 28 28 25 20 17 16 15 13 14 14 15 15 16 16 16 16 16 16 16 16 15 15 15 15 15 16 17 18 18 19 18 18 18 18
26 26 23 23 23 23 23 25 26 26 23 20 19 17 14 14 14 15 15 15 15 15 15 16 16 16 17 17 17 17 17 16 16 17 17 18 19 19 19 19 18 18
27 26 23 22 23 23 24 25 26 25 23 22 21 18 16 15 16 17 17 17 17 17 16 17 17 17 18 19 19 19 19 19 18 18 18 18 18 18 18 18 18 18
26 25 22 22 23 24 25 25 23 22 21 22 22 19 18 18 18 18 19 19 19 19 19 19 19 19 20 20 20 21 20 20 19 18 18 18 18 18 18 18 19 19
22 21 21 22 22 23 23 22 20 19 20 21 21 20 20 20 20 20 21 21 21 21 22 22 21 21 20 21 21 21 21 20 19 19 19 18 18 18 19 20 21 21
15 17 19 20 21 21 20 20 21 20 20 20 21 22 22 22 22 22 23 23 23 23 22 22 21 21 20 21 21 21 21 20 20 20 20 20 20 20 21 21 22 22
15 15 17 18 19 20 20 21 23 22 21 21 23 24 24 24 24 24 24 24 23 22 21 21 21 21 20 20 21 21 21 21 21 21 21 21 21 21 21 21 21 22
15 15 15 16 18 21 23 24 25 25 25 25 26 26 26 26 26 25 24 23 22 21 21 21 21 21 20 20 20 21 21 22 22 22 22 22 22 21 20 20 21 22
15 16 17 19 22 25 26 28 28 28 27 27 28 28 27 27 26 25 24 22 21 22 22 22 21 21 21 22 22 21 22 22 23 23 24 23 23 23 21 21 22 23
15 17 19 20 20 21 23 26 28 28 28 28 28 27 26 26 26 25 23 22 22 23 23 23 23 22 21 21 22 21 21 22 23 23 25 26 26 25 24 23 24 25
14 16 19 18 16 16 17 20 21 21 23 25 26 25 24 24 25 25 24 24 25 25 25 26 26 25 23 22 21 21 21 22 22 23 26 28 28 27 27 27 26 25
14 16 17 17 18 18 19 22 22 20 21 23 24 25 24 24 25 26 25 26 27 28 29 30 29 27 26 26 25 24 23 25 25 25 27 28 28 28 29 30 30 28
17 18 17 16 18 19 20 23 24 23 23 22 22 22 23 23 25 26 27 27 29 29 30 32 29 25 25 27 26 26 27 28 28 28 28 29 30 31 31 32 32 31
19 19 19 19 20 21 23 24 25 26 26 25 24 24 23 24 27 29 29 29 30 30 31 33 33 30 30 30 29 30 31 30 29 29 30 31 32 33 34 36 37 37
23 22 22 23 24 24 26 28 29 30 30 29 29 28 27 29 30 32 33 33 32 33 35 36 37 37 36 34 32 32 31 31 31 32 34 36 37 38 38 39 41 42
27 27 27 28 28 29 30 31 32 33 32 32 32 32 32 33 34 35 36 36 36 38 38 36 37 38 38 37 36 36 36 36 37 37 37 38 39 40 41 41 43 45
31 31 31 32 33 33 33 34 35 36 35 35 36 36 36 37 38 38 39 41 41 41 39 39 40 41 42 41 40 39 40 40 40 39 38 39 39 40 41 42 44 46
35 35 36 36 37 38 37 38 39 39 39 39 39 40 40 41 42 42 42 43 43 42 42 43 44 44 43 43 43 43 43 41 39 38 38 38 39 40 40 41 43 45
38 38 39 39 40 41 41 42 43 43 42 43 43 44 44 43 42 41 40 40 41 41 40 41 43 43 43 43 44 44 44 42 40 39 38 38 40 41 41 42 44 45
42 42 42 43 43 43 44 44 44 44 44 44 43 42 42 41 40 40 41 42 43 43 42 42 43 44 46 47 47 45 44 43 43 43 42 43 43 43 43 43 44 45
43 44 44 44 43 43 43 42 42 42 43 42 42 41 41 42 44 46 48 49 49 49 49 49 48 47 47 47 48 47 46 48 50 49 48 48 47 45 45 45 45 46
43 43 43 43 42 41 41 41 41 42 43 43 44 45 47 50 53 55 57 57 56 56 55 53 51 50 49 49 50 51 53 54 55 53 52 51 49 47 46 45 46 46

ECMWFNIL_500_spd_051.txt.gz
Wind_Speed
13 14 15 16 17 17 17 17 17 18 18 17 15 13 12 13 15 17 18 18 17 15 14 14 13 13 12 12 13 14 14 13 12 11 10 9 9 8 8 8 9 9
13 14 14 15 15 16 16 17 18 20 20 19 17 15 13 14 16 18 20 20 19 18 17 16 15 14 14 14 15 15 14 12 11 10 9 8 8 8 8 8 8 8
13 14 14 14 15 15 16 17 19 21 21 21 19 17 16 16 17 19 21 21 21 19 19 18 17 16 16 16 15 14 13 11 10 9 8 8 8 8 8 9 9 9
13 14 14 15 16 16 16 17 19 21 22 23 21 19 18 18 19 19 20 21 20 20 19 18 17 16 16 15 14 13 13 12 11 10 10 10 10 10 10 10 10 10
14 14 15 17 18 18 18 18 20 22 24 24 22 20 19 20 20 19 20 19 19 19 19 18 16 15 14 14 13 13 13 12 12 12 12 12 12 12 12 12 11 11
16 15 16 17 18 19 19 19 21 22 24 24 22 20 20 21 21 20 19 19 18 18 18 17 15 14 13 12 12 12 13 13 14 14 14 13 13 13 13 13 12 11
17 16 17 18 19 20 20 20 21 23 24 24 21 19 21 22 22 21 20 19 18 17 17 16 15 14 13 13 13 13 14 14 14 14 14 13 13 13 13 13 12 12
16 16 15 17 20 21 20 19 21 23 24 23 21 20 22 24 23 22 21 19 18 17 16 16 16 15 15 15 15 15 15 15 14 14 13 13 13 13 13 13 13 14
16 15 14 15 17 18 18 18 20 23 24 23 21 21 23 23 22 21 20 18 17 17 17 17 17 17 17 17 17 17 17 16 15 15 14 14 14 14 14 15 15 16
17 16 16 17 17 16 16 18 20 23 23 22 22 21 21 21 20 20 19 18 18 18 18 18 19 19 18 18 18 18 18 17 17 17 16 16 16 16 16 16 17 17
18 18 20 21 20 18 17 18 20 21 22 22 21 20 19 19 19 19 19 19 19 19 19 20 19 18 17 17 17 17 18 18 19 19 18 18 18 18 18 18 18 19
17 18 18 19 18 18 18 18 18 18 19 21 21 19 19 19 20 20 20 21 21 20 20 18 17 15 15 15 16 17 17 18 19 20 20 18 18 18 19 19 19 20
16 15 15 17 17 16 18 18 17 18 20 20 20 19 19 20 21 21 22 22 21 19 17 16 15 15 15 15 16 17 17 18 19 20 20 20 20 20 20 20 21 22
14 14 15 17 17 17 19 19 19 20 22 23 23 23 23 23 24 23 23 23 22 20 18 17 17 17 17 18 18 18 18 18 18 19 20 21 22 21 21 21 22 23
11 14 15 16 18 19 20 19 17 17 17 20 22 23 25 26 25 24 24 23 21 22 21 20 19 19 20 21 22 22 22 21 21 22 22 22 23 22 22 23 24 24
10 12 14 15 17 17 17 15 13 13 13 14 16 18 20 21 22 23 24 23 21 22 22 22 21 21 21 22 23 24 24 25 25 25 25 25 26 26 25 26 26 26
12 12 14 14 15 16 16 14 13 14 14 14 15 16 17 17 18 20 21 21 21 21 22 23 23 23 23 23 24 24 25 26 25 25 26 28 29 29 29 28 27 27
13 13 14 15 17 19 20 18 16 16 16 16 16 17 17 17 17 17 17 19 20 21 23 25 26 27 26 26 27 27 28 29 29 30 30 30 30 31 30 28 27 27
16 15 15 16 19 20 21 20 18 17 18 18 18 19 20 20 19 20 20 21 23 24 26 28 29 30 30 30 31 31 32 32 32 32 32 32 33 32 31 30 30 31
20 19 19 21 22 22 22 22 20 19 19 20 21 23 23 23 23 23 24 25 27 28 30 31 32 33 33 33 34 34 35 34 32 33 34 36 36 35 34 34 36 38
26 27 28 27 26 25 25 25 26 27 28 27 26 27 27 28 27 27 28 29 31 32 33 34 36 36 36 36 36 36 35 34 35 37 39 39 37 36 37 38 40 42
30 31 32 31 29 29 31 32 34 35 35 32 31 31 32 33 33 32 33 34 35 36 37 37 38 39 38 37 36 34 34 35 37 38 39 39 39 40 41 42 43 45
35 35 35 35 35 35 36 37 38 38 37 35 35 36 37 38 38 38 39 39 39 40 40 41 41 41 39 38 36 35 35 37 39 40 42 44 45 45 45 46 46 47
38 38 38 39 40 40 39 40 41 41 40 39 39 39 40 41 42 43 44 44 44 43 43 42 42 41 40 39 38 39 41 43 45 46 47 48 48 48 47 47 47 48
40 40 40 41 42 41 41 41 42 42 43 43 43 44 45 44 45 46 46 46 45 44 43 42 41 41 41 41 42 45 47 49 50 50 50 49 49 48 47 47 47 48
43 43 43 44 44 43 43 44 45 45 45 45 45 46 46 45 45 45 44 44 43 42 41 41 41 42 44 46 49 51 52 52 52 51 51 50 49 48 48 48 49 50

ECMWFNIL_500_spd_057.txt.gz
Wind_Speed
22 22 21 18 15 13 13 14 15 16 16 16 16 17 17 17 17 18 17 16 16 15 15 14 13 14 14 14 14 14 13 14 15 14 14 13 12 12 11 11 12 11
20 19 18 17 16 15 16 16 17 17 16 15 15 16 17 17 18 18 17 17 17 16 14 13 13 13 14 15 15 13 12 13 13 13 13 13 12 12 11 11 11 10
20 19 18 18 17 17 17 17 17 16 15 14 14 15 16 17 18 19 19 18 17 17 15 13 12 12 13 15 15 14 13 13 14 13 13 12 12 11 10 10 9 9
20 20 19 19 18 17 17 17 17 16 15 14 14 14 15 17 18 19 19 19 19 18 17 14 13 12 13 15 15 14 14 15 15 14 13 12 11 10 10 9 9 8
21 20 19 19 18 18 18 18 18 17 16 15 16 16 15 17 18 19 19 19 19 20 19 17 14 13 13 14 14 14 14 15 15 14 14 13 12 11 11 10 10 9
19 19 19 20 19 19 19 18 17 17 17 17 18 18 17 18 20 20 19 19 19 20 19 17 15 14 14 13 13 13 13 13 14 14 14 13 13 12 12 11 11 10
19 20 21 22 22 21 19 17 17 17 18 20 21 20 19 19 20 21 20 18 18 19 18 17 15 14 13 12 11 12 12 12 13 14 14 14 14 14 13 13 12 12
20 22 23 24 23 21 19 18 18 18 19 20 21 20 19 19 20 21 20 18 17 17 17 16 15 14 12 11 11 11 12 13 14 15 15 15 15 14 14 14 13 13
23 24 25 25 24 22 20 19 18 18 19 19 19 19 19 19 18 18 18 17 17 17 17 16 15 13 12 12 12 12 12 13 14 14 14 14 13 13 12 12 12 12
23 24 25 25 24 22 20 20 19 18 19 19 19 19 20 18 16 16 16 16 17 18 18 17 15 14 13 13 12 12 12 12 12 12 12 11 10 10 10 10 10 10
23 23 23 24 24 22 22 22 20 19 20 20 19 20 20 17 16 16 16 17 18 19 19 18 17 16 14 13 12 12 11 11 10 10 9 8 8 8 8 8 8 8
24 24 24 25 25 24 23 22 21 21 21 20 19 20 20 19 18 16 17 19 21 20 20 19 18 16 14 13 12 12 11 10 9 9 8 8 8 8 8 8 8 8
24 24 25 27 28 28 27 24 23 23 20 19 20 21 20 20 19 18 19 21 23 22 21 19 17 15 14 13 13 12 12 11 11 10 10 9 10 10 10 10 10 9
26 26 26 27 29 30 29 26 23 21 19 21 23 23 21 19 19 20 21 23 24 24 22 19 16 15 15 14 14 14 13 13 13 13 13 13 13 13 13 12 12 12
23 24 24 26 26 24 24 24 21 18 19 22 23 22 21 20 19 21 22 23 24 23 21 18 17 17 16 16 16 16 16 15 15 16 16 16 16 15 15 14 14 14
19 20 21 22 21 20 20 20 18 16 18 20 20 19 19 19 19 20 21 22 22 22 21 20 19 19 18 18 18 18 18 17 16 16 17 17 17 17 17 16 16 16
17 19 19 19 19 19 18 17 15 15 17 19 19 19 18 17 17 17 18 19 19 19 19 20 19 19 19 19 19 19 18 17 17 17 17 18 19 18 18 18 18 18
17 18 18 18 19 18 17 16 16 17 18 19 19 19 18 16 16 16 17 17 16 16 17 17 18 18 19 20 19 19 19 18 17 17 17 18 21 21 21 21 21 21
19 18 17 17 17 17 17 18 19 18 18 19 19 18 17 16 16 17 18 17 17 17 18 18 18 19 19 19 19 19 20 19 19 20 20 22 25 26 25 25 25 25
23 21 19 18 17 17 17 19 20 18 18 19 20 19 19 19 18 18 20 20 21 20 20 19 20 21 20 20 21 22 23 22 23 24 25 26 29 30 29 29 29 29
26 27 26 25 25 22 18 18 20 18 17 20 22 21 21 21 20 20 21 23 23 22 22 23 24 24 23 24 26 27 28 27 28 30 30 30 32 33 32 32 32 32
26 28 28 28 28 26 23 22 23 22 21 23 25 25 25 24 23 22 22 25 27 25 24 27 29 28 29 31 32 30 29 30 32 34 34 35 36 37 36 36 36 36
26 27 28 28 29 29 29 29 28 27 27 27 28 29 29 28 27 26 27 30 32 30 29 30 30 30 32 34 33 32 32 34 36 38 38 38 40 40 40 40 40 40
29 29 30 31 31 32 33 32 31 31 30 31 31 31 31 31 31 31 32 34 35 35 35 35 36 37 38 36 36 38 40 41 42 43 44 44 44 44 45 45 45 45
31 32 32 32 32 33 33 33 33 32 32 33 33 33 33 33 33 33 34 36 38 40 40 40 40 43 45 44 44 45 45 45 46 48 49 49 49 50 50 50 49 49
34 34 35 35 35 35 34 35 35 34 34 35 35 35 36 36 36 37 37 38 40 42 43 44 43 45 48 49 50 50 50 51 52 52 53 53 53 53 53 53 52 52

ECMWFNIL_500_spd_060.txt.gz
Wind_Speed
22 24 24 24 25 25 23 23 22 20 18 15 14 14 14 13 13 14 15 15 15 14 14 15 16 16 16 16 15 15 14 14 15 15 16 16 16 16 16 15 14 14
23 24 25 26 26 24 22 21 20 18 15 13 13 13 14 14 14 15 15 15 14 14 14 14 15 16 16 16 16 15 15 15 15 15 15 15 16 15 15 14 14 14
21 23 26 27 26 24 22 19 17 15 14 13 13 13 13 14 13 13 13 14 14 14 13 14 15 15 15 15 15 16 16 17 16 15 15 15 15 15 15 15 15 15
18 22 25 26 26 26 24 21 17 15 14 14 12 11 11 11 11 11 12 12 14 15 15 15 16 16 16 16 16 17 17 18 17 16 16 16 15 15 16 16 16 16
18 21 23 23 25 25 23 20 17 15 14 12 10 10 12 11 11 12 12 12 13 14 17 18 18 18 18 18 18 18 19 19 18 17 17 17 16 16 16 16 16 16
19 20 21 21 21 21 20 18 16 15 13 12 11 13 13 13 13 13 14 14 13 14 17 19 20 20 20 20 20 20 20 19 18 18 18 18 17 17 16 16 16 16
19 19 20 20 19 19 18 17 16 15 13 14 14 14 14 14 14 14 14 14 14 14 16 19 20 21 21 21 21 21 20 19 18 18 18 18 17 17 17 16 16 16
19 20 20 20 19 18 17 16 16 15 14 16 16 14 14 16 16 14 13 12 13 14 16 18 19 19 20 20 21 21 20 19 18 18 17 17 17 17 17 17 16 16
18 19 19 18 17 17 17 17 17 15 15 17 18 15 14 15 16 14 12 11 12 13 14 16 17 17 18 19 21 21 20 18 17 16 16 16 16 16 17 17 17 18
19 19 19 18 17 17 18 19 18 16 16 19 19 16 15 15 16 14 12 13 14 14 13 13 14 15 16 18 20 21 20 19 17 16 16 15 15 16 16 17 18 18
23 21 21 20 19 18 19 20 19 17 18 20 21 19 17 16 15 14 13 14 15 17 16 13 13 14 15 17 19 20 21 19 18 17 16 15 15 15 16 16 16 17
25 23 22 22 20 19 20 22 20 19 19 20 22 21 18 17 16 15 15 15 15 17 17 15 14 14 15 16 18 19 20 19 18 17 16 15 15 16 16 16 16 16
25 24 23 22 21 21 23 25 23 21 20 21 23 22 19 18 18 17 16 16 16 17 17 16 16 16 16 16 17 19 19 19 19 18 16 16 16 16 16 17 17 16
23 24 25 24 23 23 24 26 25 24 23 23 24 24 21 20 20 19 17 16 17 17 17 17 17 16 16 16 17 19 19 19 18 17 17 16 17 17 17 17 17 17
19 21 22 24 25 23 24 26 27 27 27 27 28 27 24 22 21 18 16 16 17 17 16 16 16 17 16 17 17 18 19 18 18 17 18 18 18 19 19 19 18 18
15 15 17 21 24 24 25 25 23 21 20 22 26 26 24 21 18 15 14 15 16 15 15 14 14 16 17 17 18 18 18 19 19 19 19 20 20 21 21 21 20 20
13 13 14 16 18 19 19 17 15 14 12 13 16 19 19 17 14 13 14 16 16 15 13 13 14 16 17 18 19 20 20 21 21 22 22 23 23 24 23 23 21 21
12 12 13 13 16 17 16 14 14 14 12 11 12 13 13 13 13 14 15 16 16 15 13 13 15 17 18 19 20 21 22 24 25 25 25 25 26 25 24 23 22 22
14 14 15 16 18 19 18 16 15 15 14 13 12 12 12 12 13 14 14 15 15 14 15 16 18 19 20 20 21 21 23 24 26 26 26 26 26 25 25 24 24 23
19 18 17 17 18 18 18 18 17 16 14 12 13 14 14 14 14 14 15 15 15 15 16 18 20 21 21 22 22 23 23 24 24 24 24 26 26 26 26 26 26 26
20 19 19 19 19 19 19 18 18 18 16 15 16 16 16 16 16 17 18 18 18 18 19 20 23 24 23 23 23 24 24 25 24 23 24 26 28 28 29 29 29 29
20 21 21 21 21 22 22 20 19 19 19 19 20 20 18 18 19 19 21 22 22 22 22 24 27 27 25 24 24 26 28 28 27 26 28 30 31 32 33 33 32 32
22 22 22 22 23 25 25 25 24 23 22 22 22 22 22 22 22 24 25 26 27 27 28 29 30 29 27 27 29 30 31 32 32 32 33 35 35 34 33 33 33 34
24 24 24 25 25 25 26 27 28 28 27 27 27 28 28 29 29 29 29 30 31 31 31 32 31 31 32 33 34 34 34 35 35 35 36 37 37 36 36 36 37 38
26 27 27 28 28 28 28 29 31 31 32 32 33 33 34 35 35 33 33 35 35 34 34 35 35 35 36 37 37 38 39 39 39 39 39 41 42 43 43 44 45 44
29 30 30 31 31 32 32 33 34 34 34 34 34 36 37 38 39 38 39 40 40 40 40 40 39 40 41 41 42 42 43 43 43 43 44 46 47 49 50 51 52 51

ECMWFNIL_500_spd_063.txt.gz
Wind_Speed
17 19 21 21 22 21 20 19 17 16 17 18 18 17 18 17 16 15 15 15 16 16 16 16 15 15 15 16 16 16 16 16 16 16 16 15 16 16 17 17 17 18
18 20 21 21 22 21 19 18 17 17 18 19 19 18 18 17 15 14 14 15 16 16 17 17 16 16 16 16 16 16 16 16 16 16 16 16 16 17 17 18 18 18
19 20 20 20 22 22 20 20 19 18 18 19 19 18 16 15 14 13 13 14 15 16 16 16 15 15 16 16 16 17 17 17 16 16 17 17 17 17 17 18 18 18
19 19 18 19 21 23 22 20 19 19 19 19 19 17 14 13 13 12 12 13 13 14 15 16 16 16 16 16 16 16 17 16 16 16 17 17 18 18 18 18 18 18
16 17 18 19 21 23 22 20 21 20 17 17 16 15 13 13 13 12 12 13 13 13 14 15 16 17 17 16 16 16 17 16 16 16 17 18 19 19 19 19 19 19
12 14 16 18 21 22 21 20 21 20 16 15 15 15 15 15 14 13 13 13 13 13 13 13 14 15 16 17 17 17 18 18 18 18 19 20 20 21 21 21 21 20
12 13 14 16 19 21 21 20 20 18 16 16 16 16 17 16 15 14 14 13 13 14 14 13 13 13 15 16 18 19 20 20 21 20 20 21 21 21 22 22 21 21
16 15 15 15 17 18 19 19 18 16 16 17 17 17 17 16 15 15 15 14 14 13 13 13 13 13 15 16 18 20 20 21 21 21 21 21 21 21 21 21 21 21
19 19 18 17 17 18 18 18 18 17 16 17 17 17 16 16 17 17 16 14 14 13 11 10 10 12 14 17 19 20 21 20 20 20 20 20 20 20 21 21 21 20
19 20 20 20 19 19 19 18 19 18 18 18 18 18 18 17 17 17 15 14 14 13 11 8 9 10 13 16 19 20 20 20 19 19 19 19 20 20 20 19 20 20
20 20 21 20 19 19 18 18 18 19 19 20 20 20 20 19 18 17 15 14 14 14 11 9 9 11 13 15 18 19 19 19 19 19 19 19 19 19 19 19 19 20
22 22 23 23 21 20 20 19 19 19 20 21 21 22 22 21 19 17 16 15 14 15 13 11 11 12 14 15 16 17 17 18 19 19 19 19 19 19 19 19 20 20
21 23 25 26 24 23 23 22 21 21 21 21 21 22 22 22 20 18 17 16 15 15 15 13 12 13 14 15 15 15 16 17 18 20 20 19 19 19 19 20 20 21
22 24 25 26 26 25 24 24 23 23 23 22 22 21 21 22 22 20 18 18 16 16 18 17 14 14 14 15 15 15 15 16 18 20 20 20 20 20 20 20 21 22
19 21 22 22 23 24 25 25 25 25 25 24 23 22 22 23 23 21 20 20 18 18 19 19 16 15 15 15 15 15 16 17 18 20 21 21 21 21 22 22 23 23
17 18 19 19 20 23 25 27 28 27 26 26 24 24 24 25 25 24 22 22 21 20 20 19 16 15 15 15 15 15 16 17 18 20 22 23 23 23 24 24 24 25
19 17 17 18 19 20 21 25 28 27 26 25 23 21 22 23 25 27 27 26 24 21 19 19 17 16 16 16 15 15 16 18 19 21 22 23 24 24 24 25 25 26
20 17 16 16 17 17 20 26 31 30 24 19 14 13 15 17 22 26 27 26 24 21 19 19 17 17 17 16 15 16 17 19 20 22 23 24 25 25 25 26 27 27
19 17 15 16 16 18 20 21 21 20 16 13 11 12 13 14 17 19 21 22 21 20 19 17 16 15 15 15 16 17 18 20 22 23 24 25 26 27 28 28 29 29
19 17 16 16 17 19 19 16 13 12 12 12 13 14 15 16 17 18 20 21 21 20 19 17 16 15 15 15 17 18 19 21 23 24 26 27 28 29 29 30 30 31
20 19 19 19 19 19 19 18 16 15 14 14 14 15 17 18 18 20 21 22 22 21 20 19 18 17 17 17 18 19 20 22 23 25 26 28 29 29 30 30 31 31
20 20 20 21 22 22 21 19 18 16 16 16 16 17 18 19 19 19 21 21 22 22 22 22 21 21 20 19 20 21 23 24 26 27 28 29 29 30 31 31 32 32
21 21 21 21 21 21 21 20 20 19 19 18 18 19 19 20 20 20 20 21 21 21 22 22 23 23 23 23 23 25 27 28 29 30 31 31 31 31 32 33 34 34
23 23 22 21 21 21 21 21 21 21 21 21 22 23 23 23 23 23 23 23 22 22 24 24 25 26 28 29 30 31 32 32 33 33 33 33 33 34 35 36 37 38
24 24 23 22 22 21 22 22 23 23 23 24 25 26 26 27 27 27 27 27 27 28 29 30 31 33 34 35 36 36 36 36 36 37 37 38 38 38 39 40 41 42
26 25 24 23 23 23 23 24 25 25 26 26 27 28 28 28 28 29 30 31 32 34 34 35 35 36 37 38 39 39 39 39 39 40 41 42 43 43 44 45 46 47

ECMWFNIL_500_spd_066.txt.gz
Wind_Speed
23 22 22 20 19 19 18 16 14 13 13 13 15 16 16 16 16 17 16 16 16 16 17 17 17 17 17 16 16 15 15 16 16 16 17 17 18 18 19 18 18 18
21 20 20 19 19 18 16 15 14 13 13 14 15 16 16 17 17 17 17 17 16 17 17 17 18 18 18 17 17 17 17 18 18 18 18 19 19 19 19 19 18 18
20 19 19 19 18 16 14 14 14 14 16 16 16 17 17 17 18 18 18 18 18 18 18 19 19 20 20 20 20 20 20 20 20 20 19 20 20 19 18 18 18 17
21 19 19 19 18 16 15 14 14 15 17 17 17 18 18 18 18 19 19 19 19 19 19 20 21 21 21 21 21 20 20 20 19 19 19 19 19 18 17 17 17 17
20 19 19 19 18 17 17 17 17 17 18 18 19 19 18 18 18 19 19 19 18 18 17 18 19 20 21 21 20 19 18 18 18 18 18 18 17 16 16 16 17 17
19 19 18 18 18 18 18 18 20 20 19 20 21 20 18 17 18 19 19 18 17 15 15 15 16 17 18 19 19 19 18 18 18 18 18 18 17 17 17 17 18 18
18 18 18 18 18 19 19 19 20 20 19 21 20 17 17 18 19 19 18 17 16 14 14 14 14 15 16 17 18 18 18 19 19 19 20 20 20 19 19 19 20 20
18 17 17 17 18 20 21 21 20 18 18 19 18 15 16 19 19 19 18 17 16 15 15 15 15 16 16 17 17 18 18 19 19 20 20 21 21 21 21 20 20 20
18 17 17 17 18 20 20 21 21 20 19 18 17 16 18 20 20 19 18 18 17 16 16 16 16 16 17 18 18 18 18 18 19 20 20 21 21 21 21 20 20 20
20 19 18 18 19 19 19 20 21 22 21 19 18 18 20 21 21 20 20 19 18 17 16 16 15 16 17 17 17 17 18 18 19 20 20 21 21 20 20 19 20 20
22 21 20 20 20 21 21 20 21 22 22 21 20 20 22 22 23 22 21 20 18 17 16 15 15 16 17 17 17 17 18 18 19 19 20 20 20 19 19 19 20 20
23 23 22 21 21 22 23 22 21 22 22 22 22 22 23 24 24 23 22 20 19 17 16 16 15 16 16 18 18 18 18 18 18 19 19 19 19 19 19 19 20 21
22 24 24 23 22 22 23 23 22 21 21 21 22 22 24 25 25 24 23 22 20 19 18 17 17 16 16 17 18 18 17 17 17 18 18 18 19 19 19 20 20 21
21 23 23 23 23 23 24 24 22 21 21 21 22 22 23 24 25 26 25 23 21 21 20 19 18 17 16 17 18 18 18 17 17 18 18 18 19 20 20 20 20 21
20 22 23 24 23 23 25 26 24 23 23 23 23 23 24 25 26 26 26 24 22 21 21 21 20 19 17 17 18 19 19 18 18 18 18 19 20 21 22 22 22 22
21 22 22 24 23 22 24 26 27 26 27 27 26 25 25 26 27 26 25 24 22 22 22 22 21 20 19 18 19 20 21 20 19 19 19 20 22 23 23 23 23 23
22 21 20 22 23 23 23 24 24 25 26 27 27 26 27 27 27 27 26 25 24 23 22 23 23 22 20 20 20 21 22 21 20 20 20 21 22 24 24 25 24 24
20 20 19 20 21 22 23 22 23 24 24 25 25 26 26 26 27 28 28 27 27 25 24 25 26 25 23 22 22 23 23 23 22 21 21 22 23 24 25 26 26 26
18 19 20 20 20 23 24 23 25 26 26 27 27 27 27 26 26 28 30 30 28 26 27 29 30 28 26 24 23 24 24 24 23 22 22 22 24 25 26 27 28 28
19 18 20 21 21 23 24 24 27 29 28 28 29 30 30 28 25 25 27 29 30 29 31 33 32 29 27 25 24 24 24 24 24 24 24 24 26 27 28 29 29 30
22 21 21 21 22 23 23 25 27 26 23 20 18 18 20 21 21 21 22 25 28 28 28 29 29 28 26 26 25 25 25 25 24 24 24 25 26 27 28 29 30 31
20 20 21 21 22 22 22 22 21 19 16 13 12 11 13 15 18 20 20 21 22 23 23 25 26 26 26 25 25 25 25 24 24 24 25 25 26 27 28 28 29 31
18 19 20 21 22 22 22 22 21 20 19 16 14 14 14 15 17 18 19 20 21 22 23 23 24 23 23 24 24 25 25 25 26 26 26 27 27 28 29 30 32 33
17 18 19 21 22 23 23 23 23 22 20 18 17 17 17 18 19 19 20 21 21 22 23 23 23 23 24 25 27 28 28 28 28 28 28 29 30 31 33 35 36 37
19 20 21 22 23 23 23 23 23 22 20 19 19 19 20 20 21 21 22 23 24 25 25 25 26 26 27 28 29 30 30 30 30 31 32 33 34 36 37 38 39 39
22 23 23 24 24 25 25 25 25 24 23 22 21 21 22 23 23 24 25 26 27 28 28 29 30 30 31 32 33 34 35 35 35 36 36 36 37 38 39 40 41 41

ECMWFNIL_500_spd_069.txt.gz
Wind_Speed
20 20 21 24 22 16 14 14 14 15 16 16 16 15 14 14 14 14 14 13 14 15 15 16 16 16 17 17 17 18 18 18 18 17 17 16 15 16 16 16 15 15
21 22 23 25 24 18 16 14 14 16 16 16 16 15 14 14 15 15 14 14 15 16 16 16 16 16 16 17 17 18 18 18 17 16 16 16 16 15 16 17 16 15
22 22 23 25 25 20 16 15 15 16 16 16 17 15 15 15 15 15 15 15 16 17 17 16 16 16 17 17 18 18 18 18 18 18 18 17 17 16 16 17 18 17
23 23 24 25 23 20 17 16 16 16 16 17 16 16 16 16 15 15 16 16 17 18 18 17 17 18 18 18 19 19 20 20 20 20 20 19 18 18 17 17 18 18
24 23 23 24 22 20 18 17 17 16 16 15 15 16 17 17 16 16 17 17 19 19 19 19 19 19 19 19 20 21 21 21 20 20 19 19 19 19 18 17 18 17
25 22 22 23 23 21 19 18 18 17 15 14 14 17 18 18 17 18 18 19 20 20 20 20 20 20 20 19 19 20 20 19 19 18 17 18 18 19 18 17 17 17
23 23 22 22 23 22 20 19 19 19 18 16 17 19 20 19 19 19 20 20 21 21 21 20 20 20 19 18 17 17 18 18 19 19 19 19 19 19 18 17 18 18
21 23 23 23 23 22 21 19 19 20 19 17 19 20 20 20 21 21 21 21 20 21 20 20 19 19 18 17 17 16 17 18 19 20 20 20 20 20 19 19 20 20
20 21 22 22 22 22 21 21 21 20 18 18 19 20 20 20 21 21 20 20 19 20 20 19 19 19 18 18 18 18 18 18 19 20 21 21 21 21 20 21 21 21
19 21 21 21 21 21 21 22 22 20 19 20 19 19 19 19 19 19 19 19 19 20 20 19 19 19 18 18 18 18 18 19 20 21 21 22 22 21 21 21 21 21
19 21 22 22 22 21 21 21 22 21 22 22 21 20 19 19 19 19 20 20 20 20 20 20 20 19 19 19 18 17 17 18 20 21 22 22 22 22 21 21 20 20
22 23 24 25 25 23 22 22 21 22 23 23 21 21 21 21 21 21 21 20 20 21 21 20 20 19 19 19 19 18 18 18 20 21 22 22 23 22 21 21 20 20
25 26 27 28 27 24 22 22 22 23 23 23 23 22 23 23 23 23 22 21 21 22 22 21 20 20 20 20 20 20 19 19 20 21 22 23 22 22 22 21 21 19
25 27 27 27 27 25 23 23 23 24 24 25 25 25 25 25 24 24 23 23 23 24 24 23 22 21 21 21 21 21 21 20 21 21 23 23 23 23 23 23 23 22
23 24 25 24 24 24 24 24 24 24 25 26 26 26 25 25 25 24 23 24 25 25 25 25 23 23 23 23 22 22 22 22 21 22 23 24 24 24 25 25 25 24
24 24 23 23 23 23 23 24 24 24 25 26 26 26 25 24 24 24 24 24 25 26 26 25 24 24 24 24 24 23 23 22 22 22 23 24 26 26 26 26 26 25
25 24 22 23 25 24 23 23 23 23 24 25 26 26 26 25 25 25 25 25 25 26 26 25 24 24 24 24 25 25 24 23 23 23 23 24 26 27 28 27 27 26
25 24 23 24 25 24 22 22 22 22 23 24 26 28 28 28 27 26 26 26 26 26 26 26 26 25 24 24 26 26 25 24 24 24 25 26 27 28 28 28 27 26
23 22 22 23 23 21 20 20 21 22 22 23 24 26 27 28 27 26 26 26 26 26 27 28 27 27 26 26 26 27 27 28 26 26 26 27 28 28 28 27 27 26
20 19 19 20 21 20 21 21 22 23 24 24 24 25 26 26 25 26 27 27 27 27 28 28 28 29 28 28 29 30 30 31 30 28 27 28 28 29 28 27 26 26
20 19 19 21 21 21 23 23 23 24 25 25 25 25 26 27 28 29 31 32 30 30 30 30 31 30 29 29 32 33 32 32 31 29 29 28 28 27 27 26 26 26
19 19 20 21 22 22 23 23 23 23 23 24 25 27 28 28 27 27 28 30 29 29 29 29 30 31 31 33 33 32 31 31 30 29 29 28 27 26 26 26 27 27
18 19 20 21 22 23 22 22 23 23 23 24 25 25 23 21 19 18 18 18 20 21 22 23 24 26 29 31 30 28 28 28 28 28 28 27 27 26 26 27 27 28
18 19 20 21 22 23 22 22 23 24 24 24 24 22 19 17 17 17 16 16 16 18 19 21 21 22 23 25 25 25 25 26 26 27 27 26 27 28 28 28 29 30
19 19 20 20 20 21 21 22 24 25 25 24 23 20 19 18 18 19 19 20 20 20 20 20 21 22 23 23 24 24 25 25 26 27 28 28 28 30 31 31 32 34
21 21 21 20 20 20 21 21 23 24 24 23 22 21 21 21 20 20 20 21 21 21 21 22 22 23 23 24 25 26 27 28 29 30 31 32 32 34 35 35 37 38

ECMWFNIL_500_spd_072.txt.gz
Wind_Speed
20 19 17 14 16 18 18 19 20 19 18 17 16 17 18 17 17 17 17 17 16 15 14 13 12 11 12 12 12 12 12 13 13 13 13 14 14 14 14 13 13 13
18 17 17 14 13 14 15 17 19 17 16 16 17 19 19 18 18 18 18 17 16 16 15 14 13 13 13 13 14 14 14 14 13 13 13 13 13 13 14 14 13 13
17 17 17 16 16 16 16 17 20 17 15 16 19 20 19 19 19 18 17 17 17 16 16 15 15 14 14 14 14 14 14 14 13 13 13 13 13 14 15 15 14 14
18 18 18 17 17 17 17 19 22 19 16 18 20 20 19 19 18 17 17 16 17 17 17 17 16 15 15 15 15 15 15 14 14 14 15 15 15 16 16 15 14 14
18 18 18 17 17 17 17 19 22 21 18 19 20 19 19 19 17 16 16 17 17 18 18 17 17 16 16 16 16 16 15 15 15 16 16 17 16 16 15 15 14 14
18 18 17 17 18 19 19 21 22 21 20 20 20 19 19 18 16 16 17 17 18 18 18 18 18 17 17 17 16 16 15 15 15 15 16 16 16 15 15 15 14 15
18 18 18 19 19 20 21 21 21 20 20 20 19 18 17 16 16 17 18 19 19 19 19 19 18 18 18 17 17 16 15 15 15 14 15 15 16 17 17 17 16 16
18 17 17 17 17 20 21 20 21 20 20 21 20 19 18 16 17 18 20 20 20 19 19 19 18 18 17 17 16 16 16 16 15 15 15 16 17 19 19 19 19 18
18 18 17 15 17 20 20 20 21 21 22 22 22 21 20 19 19 20 21 20 20 19 18 18 18 17 17 17 16 16 17 17 16 16 16 17 18 19 20 21 20 20
20 18 17 17 19 20 20 20 21 21 22 22 22 22 22 20 19 20 20 20 19 19 18 18 17 17 17 17 17 18 18 18 17 17 18 18 18 19 20 20 21 21
21 19 18 18 19 20 20 20 20 21 22 21 20 21 21 20 19 19 19 19 19 19 18 18 17 17 17 17 18 18 18 19 18 18 18 18 18 19 20 20 21 21
22 20 19 19 19 19 20 20 20 20 21 21 20 18 19 20 19 18 18 18 17 18 18 18 18 18 18 18 19 18 18 18 18 18 18 18 18 19 20 21 22 22
20 18 19 19 17 18 20 20 20 20 20 21 21 20 21 20 19 20 20 19 17 18 19 20 20 19 19 19 19 18 18 18 19 19 19 19 19 20 21 22 23 24
19 16 17 17 17 18 20 21 21 21 21 21 22 23 23 21 19 20 21 20 18 19 21 21 21 20 20 19 19 19 19 19 19 20 20 20 21 21 22 22 23 24
20 18 17 17 18 19 20 22 24 24 22 21 22 23 23 22 20 21 22 21 20 21 21 21 21 21 21 20 20 20 20 20 20 21 21 22 22 23 23 24 24 24
20 20 19 18 18 19 20 23 26 26 24 23 23 23 23 23 24 24 24 23 23 23 22 21 22 23 22 21 21 21 21 22 23 23 23 23 23 24 24 24 24 25
23 23 22 20 20 20 20 22 24 25 24 24 24 23 24 24 25 26 25 24 24 22 21 21 22 23 22 22 22 23 23 24 24 24 24 24 24 25 24 24 24 24
25 24 23 22 22 22 21 22 23 23 24 24 24 23 24 25 25 25 24 24 23 21 20 21 23 23 22 23 23 23 23 24 24 25 26 26 26 26 25 24 24 25
25 25 23 22 23 22 22 23 23 23 23 23 23 23 23 24 25 25 25 24 23 23 23 23 24 24 24 24 24 23 24 24 24 25 26 27 27 27 26 26 25 25
26 25 24 23 22 23 23 23 22 22 22 22 22 22 23 22 23 23 23 23 23 23 23 24 25 25 25 25 25 25 25 26 27 27 27 28 29 29 28 27 26 25
25 25 24 24 23 22 21 21 20 20 21 19 18 19 21 21 21 22 22 23 23 22 23 25 25 25 26 26 25 25 27 29 29 29 29 30 31 31 30 28 26 24
22 22 22 24 24 21 19 19 20 20 20 20 18 18 19 20 20 21 21 21 22 23 25 26 28 29 28 28 27 28 30 32 32 31 31 31 29 30 30 28 25 23
20 20 21 22 21 19 19 20 21 20 20 20 19 17 17 18 19 20 21 22 23 24 25 26 28 29 29 28 29 29 30 30 31 31 30 27 24 24 26 26 24 24
20 20 20 20 19 19 20 21 22 21 20 19 18 18 18 18 19 20 20 20 21 21 20 20 20 21 22 23 23 23 23 22 23 24 24 23 20 21 23 24 25 26
19 19 19 18 19 19 19 20 21 22 22 21 21 21 20 20 21 20 19 18 19 19 19 18 18 18 19 20 20 21 20 19 19 20 21 21 21 22 24 25 26 27
16 16 17 17 18 18 19 20 21 22 22 23 23 23 22 23 23 22 21 20 20 20 20 22 23 23 22 22 22 22 21 21 21 21 22 23 24 25 26 27 28 30

ECMWFNIL_500_spd_075.txt.gz
Wind_Speed
18 15 13 13 15 16 16 16 19 19 18 18 18 18 18 16 16 17 18 19 20 20 19 17 16 16 15 14 13 12 11 10 10 10 10 10 10 10 9 9 10 10
21 17 14 12 13 14 13 12 15 17 18 19 18 18 17 16 17 18 19 20 21 21 20 18 17 17 16 14 13 12 11 11 11 11 11 10 10 9 9 9 10 11
24 20 16 14 14 14 13 12 13 15 17 19 19 18 17 18 19 19 20 21 21 21 20 19 18 18 16 15 14 12 12 12 12 12 11 10 9 9 9 10 11 12
26 23 19 16 15 15 15 14 14 14 17 19 18 17 17 19 19 19 21 22 22 21 21 19 19 18 16 15 14 13 13 13 13 12 12 11 10 10 11 13 14 14
23 22 21 19 16 16 17 15 14 15 18 21 19 17 17 19 19 20 22 22 22 21 21 20 19 18 17 16 15 14 13 13 13 12 12 12 12 13 14 15 16 15
21 20 19 17 15 17 18 16 14 16 20 23 21 19 18 19 20 21 23 22 22 21 21 20 19 18 17 16 16 15 14 13 13 13 12 12 12 13 14 15 15 14
21 21 17 14 14 16 17 16 16 17 21 24 24 21 19 19 20 22 22 22 21 21 20 19 19 18 17 16 16 16 15 14 13 13 12 12 12 13 14 14 14 14
20 21 18 15 16 17 17 17 17 19 22 25 24 21 20 19 20 21 21 21 20 19 18 18 17 17 16 16 16 16 15 15 14 13 13 12 12 13 13 14 15 16
21 22 20 17 16 16 16 16 18 20 23 25 23 20 20 20 21 21 20 20 19 18 17 17 16 16 16 15 16 16 16 15 15 14 14 14 13 13 14 14 16 16
21 21 19 17 16 15 13 13 18 21 23 24 22 21 21 21 22 22 22 21 20 18 17 17 16 16 16 15 16 16 16 15 16 15 15 15 14 14 15 15 16 17
19 19 17 16 15 14 12 14 19 21 22 22 22 22 22 22 24 24 23 22 20 19 18 17 17 17 16 16 16 17 16 16 16 16 15 15 15 15 15 16 16 16
18 19 17 15 14 14 15 17 20 22 22 22 23 23 23 23 25 25 24 22 20 19 18 18 18 17 17 17 17 17 17 17 17 16 15 15 16 16 16 16 16 16
18 19 19 17 15 16 17 18 20 22 22 22 22 23 23 23 24 24 23 22 20 18 17 17 17 17 17 18 18 17 17 17 17 17 16 16 16 16 17 17 17 17
18 19 18 17 16 18 19 18 18 20 21 21 21 22 23 22 22 22 21 21 19 18 17 16 17 18 19 19 18 18 18 18 18 18 18 18 18 18 18 18 18 19
18 19 18 17 16 17 18 17 17 18 18 19 21 22 22 22 23 23 22 20 18 19 20 18 18 19 19 19 19 19 19 19 19 19 19 19 19 19 19 19 20 20
21 21 19 18 17 15 16 16 16 17 18 20 22 23 21 22 23 23 21 19 17 19 20 20 19 20 20 20 20 20 20 20 21 21 21 21 21 20 21 21 21 20
22 21 20 20 19 16 16 15 15 16 19 21 23 23 21 21 22 21 20 20 18 19 20 21 21 21 20 20 20 20 21 21 22 22 22 23 23 23 23 23 22 21
18 19 19 18 18 18 18 17 17 17 19 20 22 23 23 22 22 21 21 21 21 23 23 23 22 21 20 21 20 20 21 22 23 23 24 25 25 25 24 23 23 22
15 17 18 18 19 20 19 19 18 18 18 19 21 23 24 24 23 22 22 23 24 25 25 23 22 21 20 20 20 21 22 23 23 24 25 26 27 26 24 23 23 23
16 16 19 20 20 20 19 19 20 19 19 20 20 21 23 24 24 23 22 23 24 24 24 23 23 22 21 21 22 23 24 24 24 25 26 27 27 27 25 25 24 25
16 17 19 21 21 20 18 18 19 20 20 21 21 22 23 23 24 23 21 21 22 23 23 23 23 23 22 23 24 25 25 27 27 26 27 28 28 27 27 26 27 27
16 16 18 20 20 20 18 19 22 23 21 21 21 22 22 20 20 19 19 20 21 21 23 23 24 25 25 25 27 27 28 29 28 28 28 29 29 28 27 28 29 29
14 14 17 19 18 19 20 22 24 22 18 18 18 18 18 18 17 18 20 21 22 23 24 24 25 26 27 28 30 31 31 31 30 29 30 31 30 29 30 31 31 31
14 15 17 18 17 19 23 25 23 19 16 17 17 16 18 19 19 20 21 22 22 23 24 25 26 27 28 29 31 32 32 33 32 32 32 31 30 30 30 31 30 28
17 17 18 18 19 20 20 20 20 19 17 16 15 16 17 19 20 20 20 21 21 21 22 23 24 25 26 27 27 27 27 27 27 27 28 26 25 25 24 25 25 25
21 22 22 23 24 22 19 18 19 20 19 17 17 17 18 18 19 20 21 22 22 21 20 20 21 22 24 24 23 22 21 21 21 22 23 22 21 20 20 21 23 24